Time,TemperatureF,DewpointF,PressureIn,WindDirection,WindDirectionDegrees,WindSpeedMPH,WindSpeedGustMPH,Humidity,HourlyPrecipIn,Conditions,Clouds,dailyrainin,SoftwareType,DateUTC
2013-06-20 00:01:00,60.0,52.8,30.08,WNW,296,0.0,0.0,77,0.00,,---,0.00,VWS V14.00,2013-06-20 04:01:00,
2013-06-20 00:02:00,60.0,52.8,30.08,WNW,296,0.0,0.0,77,0.00,,---,0.00,VWS V14.00,2013-06-20 04:02:00,
2013-06-20 00:03:00,59.9,52.7,30.08,WNW,296,0.0,0.0,77,0.00,,---,0.00,VWS V14.00,2013-06-20 04:03:00,
2013-06-20 00:07:00,59.7,52.8,30.08,WNW,295,0.0,0.0,78,0.00,,---,0.00,VWS V14.00,2013-06-20 04:07:00,
2013-06-20 00:08:00,59.7,52.8,30.08,WNW,295,2.0,2.0,78,0.00,,---,0.00,VWS V14.00,2013-06-20 04:08:00,
2013-06-20 00:09:00,59.6,52.7,30.08,WNW,295,2.0,2.0,78,0.00,,---,0.00,VWS V14.00,2013-06-20 04:09:00,
2013-06-20 00:10:00,59.6,52.7,30.08,WNW,295,2.0,3.0,78,0.00,,---,0.00,VWS V14.00,2013-06-20 04:10:00,
2013-06-20 00:12:00,59.4,52.9,30.08,WNW,296,2.0,3.0,79,0.00,,---,0.00,VWS V14.00,2013-06-20 04:12:00,
2013-06-20 00:14:00,59.3,52.8,30.08,WNW,296,2.0,3.0,79,0.00,,---,0.00,VWS V14.00,2013-06-20 04:14:00,
2013-06-20 00:15:00,59.3,52.8,30.08,WNW,295,0.0,3.0,79,0.00,,---,0.00,VWS V14.00,2013-06-20 04:15:00,
2013-06-20 00:17:00,59.0,52.5,30.08,WNW,296,0.0,3.0,79,0.00,,---,0.00,VWS V14.00,2013-06-20 04:17:00,
2013-06-20 00:21:00,59.0,52.8,30.08,WNW,296,0.0,3.0,80,0.00,,---,0.00,VWS V14.00,2013-06-20 04:21:00,
2013-06-20 00:22:00,59.0,52.8,30.08,WNW,296,0.0,3.0,80,0.00,,---,0.00,VWS V14.00,2013-06-20 04:22:00,
2013-06-20 00:23:00,59.0,52.8,30.08,WNW,296,0.0,3.0,80,0.00,,---,0.00,VWS V14.00,2013-06-20 04:23:00,
2013-06-20 00:26:00,59.0,52.8,30.08,WNW,296,0.0,3.0,80,0.00,,---,0.00,VWS V14.00,2013-06-20 04:26:00,
2013-06-20 00:27:00,59.0,52.8,30.08,WNW,296,0.0,3.0,80,0.00,,---,0.00,VWS V14.00,2013-06-20 04:27:00,
2013-06-20 00:28:00,59.0,52.8,30.08,WNW,296,0.0,3.0,80,0.00,,---,0.00,VWS V14.00,2013-06-20 04:28:00,
2013-06-20 00:29:00,58.8,52.7,30.08,WNW,295,0.0,0.0,80,0.00,,---,0.00,VWS V14.00,2013-06-20 04:29:00,
2013-06-20 00:30:00,58.8,52.7,30.08,WNW,296,0.0,0.0,80,0.00,,---,0.00,VWS V14.00,2013-06-20 04:30:00,
2013-06-20 00:32:00,58.7,52.6,30.08,WNW,296,0.0,0.0,80,0.00,,---,0.00,VWS V14.00,2013-06-20 04:32:00,
2013-06-20 00:34:00,58.6,52.5,30.08,WNW,296,0.0,0.0,80,0.00,,---,0.00,VWS V14.00,2013-06-20 04:34:00,
2013-06-20 00:36:00,58.6,52.8,30.08,WNW,296,0.0,0.0,81,0.00,,---,0.00,VWS V14.00,2013-06-20 04:36:00,
2013-06-20 00:38:00,58.5,52.7,30.08,WNW,296,0.0,0.0,81,0.00,,---,0.00,VWS V14.00,2013-06-20 04:38:00,
2013-06-20 00:39:00,58.5,52.7,30.08,WNW,296,0.0,0.0,81,0.00,,---,0.00,VWS V14.00,2013-06-20 04:39:00,
2013-06-20 00:40:00,58.5,52.7,30.08,WNW,295,0.0,0.0,81,0.00,,---,0.00,VWS V14.00,2013-06-20 04:40:00,
2013-06-20 00:41:00,58.5,52.7,30.08,WNW,296,0.0,0.0,81,0.00,,---,0.00,VWS V14.00,2013-06-20 04:41:00,
2013-06-20 00:42:00,58.5,52.7,30.08,WNW,296,0.0,0.0,81,0.00,,---,0.00,VWS V14.00,2013-06-20 04:42:00,
2013-06-20 00:44:00,58.4,52.6,30.08,WNW,295,0.0,0.0,81,0.00,,---,0.00,VWS V14.00,2013-06-20 04:44:00,
2013-06-20 00:45:00,58.4,52.6,30.08,WNW,295,0.0,0.0,81,0.00,,---,0.00,VWS V14.00,2013-06-20 04:45:00,
2013-06-20 00:46:00,58.4,52.6,30.08,WNW,295,0.0,0.0,81,0.00,,---,0.00,VWS V14.00,2013-06-20 04:46:00,
2013-06-20 00:48:00,58.3,52.5,30.08,WNW,295,0.0,0.0,81,0.00,,---,0.00,VWS V14.00,2013-06-20 04:48:00,
2013-06-20 00:50:00,58.3,52.5,30.08,WNW,296,0.0,0.0,81,0.00,,---,0.00,VWS V14.00,2013-06-20 04:50:00,
2013-06-20 00:51:00,58.2,52.4,30.08,WNW,296,0.0,0.0,81,0.00,,---,0.00,VWS V14.00,2013-06-20 04:51:00,
2013-06-20 00:52:00,58.2,52.4,30.08,WNW,296,0.0,0.0,81,0.00,,---,0.00,VWS V14.00,2013-06-20 04:52:00,
2013-06-20 00:53:00,58.1,52.3,30.08,WNW,296,0.0,0.0,81,0.00,,---,0.00,VWS V14.00,2013-06-20 04:53:00,
2013-06-20 00:56:00,58.1,52.6,30.08,WNW,296,0.0,0.0,82,0.00,,---,0.00,VWS V14.00,2013-06-20 04:56:00,
2013-06-20 00:57:00,58.0,52.5,30.08,WNW,295,0.0,0.0,82,0.00,,---,0.00,VWS V14.00,2013-06-20 04:57:00,
2013-06-20 00:58:00,58.0,52.5,30.08,WNW,295,0.0,0.0,82,0.00,,---,0.00,VWS V14.00,2013-06-20 04:58:00,
2013-06-20 00:59:00,58.0,52.5,30.08,WNW,296,0.0,0.0,82,0.00,,---,0.00,VWS V14.00,2013-06-20 04:59:00,
2013-06-20 01:01:00,57.9,52.5,30.08,WNW,296,0.0,0.0,82,0.00,,---,0.00,VWS V14.00,2013-06-20 05:01:00,
2013-06-20 01:03:00,57.9,52.5,30.08,WNW,296,0.0,0.0,82,0.00,,---,0.00,VWS V14.00,2013-06-20 05:03:00,
2013-06-20 01:05:00,57.9,52.5,30.08,WNW,296,0.0,0.0,82,0.00,,---,0.00,VWS V14.00,2013-06-20 05:05:00,
2013-06-20 01:07:00,57.8,52.3,30.08,WNW,296,0.0,0.0,82,0.00,,---,0.00,VWS V14.00,2013-06-20 05:07:00,
2013-06-20 01:09:00,57.8,52.3,30.08,WNW,295,0.0,0.0,82,0.00,,---,0.00,VWS V14.00,2013-06-20 05:09:00,
2013-06-20 01:10:00,57.8,52.3,30.08,WNW,296,0.0,0.0,82,0.00,,---,0.00,VWS V14.00,2013-06-20 05:10:00,
2013-06-20 01:11:00,57.8,52.3,30.08,WNW,295,0.0,0.0,82,0.00,,---,0.00,VWS V14.00,2013-06-20 05:11:00,
2013-06-20 01:12:00,57.8,52.3,30.08,WNW,296,0.0,0.0,82,0.00,,---,0.00,VWS V14.00,2013-06-20 05:12:00,
2013-06-20 01:14:00,57.8,52.7,30.08,WNW,295,0.0,0.0,83,0.00,,---,0.00,VWS V14.00,2013-06-20 05:14:00,
2013-06-20 01:15:00,57.7,52.6,30.08,WNW,296,0.0,0.0,83,0.00,,---,0.00,VWS V14.00,2013-06-20 05:15:00,
2013-06-20 01:17:00,57.8,52.7,30.08,WNW,296,0.0,0.0,83,0.00,,---,0.00,VWS V14.00,2013-06-20 05:17:00,
2013-06-20 01:19:00,57.8,52.7,30.08,WNW,296,0.0,0.0,83,0.00,,---,0.00,VWS V14.00,2013-06-20 05:19:00,
2013-06-20 01:20:00,57.8,52.7,30.08,WNW,296,0.0,0.0,83,0.00,,---,0.00,VWS V14.00,2013-06-20 05:20:00,
2013-06-20 01:22:00,57.7,52.6,30.08,WNW,296,0.0,0.0,83,0.00,,---,0.00,VWS V14.00,2013-06-20 05:22:00,
2013-06-20 01:24:00,57.7,52.6,30.08,WNW,295,0.0,0.0,83,0.00,,---,0.00,VWS V14.00,2013-06-20 05:24:00,
2013-06-20 01:25:00,57.7,52.6,30.08,WNW,296,0.0,0.0,83,0.00,,---,0.00,VWS V14.00,2013-06-20 05:25:00,
2013-06-20 01:28:00,57.6,52.5,30.08,WNW,295,0.0,0.0,83,0.00,,---,0.00,VWS V14.00,2013-06-20 05:28:00,
2013-06-20 01:30:00,57.6,52.8,30.08,WNW,295,0.0,0.0,84,0.00,,---,0.00,VWS V14.00,2013-06-20 05:30:00,
2013-06-20 01:33:00,57.5,52.7,30.08,WNW,295,0.0,0.0,84,0.00,,---,0.00,VWS V14.00,2013-06-20 05:33:00,
2013-06-20 01:34:00,57.5,52.7,30.08,WNW,296,0.0,0.0,84,0.00,,---,0.00,VWS V14.00,2013-06-20 05:34:00,
2013-06-20 01:36:00,57.5,52.7,30.08,WNW,296,0.0,0.0,84,0.00,,---,0.00,VWS V14.00,2013-06-20 05:36:00,
2013-06-20 01:37:00,57.5,52.7,30.08,WNW,296,0.0,0.0,84,0.00,,---,0.00,VWS V14.00,2013-06-20 05:37:00,
2013-06-20 01:39:00,57.5,52.7,30.08,WNW,296,0.0,0.0,84,0.00,,---,0.00,VWS V14.00,2013-06-20 05:39:00,
2013-06-20 01:40:00,57.5,52.7,30.09,WNW,296,0.0,0.0,84,0.00,,---,0.00,VWS V14.00,2013-06-20 05:40:00,
2013-06-20 01:42:00,57.5,53.0,30.09,WNW,296,0.0,0.0,85,0.00,,---,0.00,VWS V14.00,2013-06-20 05:42:00,
2013-06-20 01:43:00,57.6,53.1,30.09,WNW,295,2.0,3.0,85,0.00,,---,0.00,VWS V14.00,2013-06-20 05:43:00,
2013-06-20 01:45:00,57.8,53.3,30.09,SSE,148,3.0,7.0,85,0.00,,---,0.00,VWS V14.00,2013-06-20 05:45:00,
2013-06-20 01:46:00,57.8,53.3,30.09,SSE,148,0.0,7.0,85,0.00,,---,0.00,VWS V14.00,2013-06-20 05:46:00,
2013-06-20 01:47:00,57.9,53.4,30.09,SSE,148,0.0,7.0,85,0.00,,---,0.00,VWS V14.00,2013-06-20 05:47:00,
2013-06-20 01:49:00,58.0,53.8,30.09,SSE,148,0.0,7.0,86,0.00,,---,0.00,VWS V14.00,2013-06-20 05:49:00,
2013-06-20 01:50:00,58.1,53.9,30.09,SSE,151,0.0,7.0,86,0.00,,---,0.00,VWS V14.00,2013-06-20 05:50:00,
2013-06-20 01:51:00,58.2,54.0,30.09,SSE,151,0.0,7.0,86,0.00,,---,0.00,VWS V14.00,2013-06-20 05:51:00,
2013-06-20 01:52:00,58.1,53.9,30.09,SSE,151,0.0,7.0,86,0.00,,---,0.00,VWS V14.00,2013-06-20 05:52:00,
2013-06-20 01:54:00,58.2,54.0,30.09,SSE,151,0.0,7.0,86,0.00,,---,0.00,VWS V14.00,2013-06-20 05:54:00,
2013-06-20 01:56:00,58.2,54.0,30.09,SSE,151,0.0,7.0,86,0.00,,---,0.00,VWS V14.00,2013-06-20 05:56:00,
2013-06-20 01:57:00,58.2,54.0,30.09,SSE,150,0.0,7.0,86,0.00,,---,0.00,VWS V14.00,2013-06-20 05:57:00,
2013-06-20 01:58:00,58.2,54.0,30.09,SSE,151,0.0,7.0,86,0.00,,---,0.00,VWS V14.00,2013-06-20 05:58:00,
2013-06-20 02:01:00,58.2,54.0,30.09,SSE,150,0.0,0.0,86,0.00,,---,0.00,VWS V14.00,2013-06-20 06:01:00,
2013-06-20 02:02:00,58.2,54.0,30.09,SSE,150,0.0,0.0,86,0.00,,---,0.00,VWS V14.00,2013-06-20 06:02:00,
2013-06-20 02:03:00,58.2,54.0,30.09,SSE,151,0.0,0.0,86,0.00,,---,0.00,VWS V14.00,2013-06-20 06:03:00,
2013-06-20 02:04:00,58.1,53.9,30.09,SSE,151,0.0,0.0,86,0.00,,---,0.00,VWS V14.00,2013-06-20 06:04:00,
2013-06-20 02:06:00,57.8,53.7,30.09,SSE,151,0.0,0.0,86,0.00,,---,0.00,VWS V14.00,2013-06-20 06:06:00,
2013-06-20 02:07:00,57.7,53.5,30.09,SSE,151,0.0,0.0,86,0.00,,---,0.00,VWS V14.00,2013-06-20 06:07:00,
2013-06-20 02:08:00,57.7,53.5,30.09,SSE,150,0.0,0.0,86,0.00,,---,0.00,VWS V14.00,2013-06-20 06:08:00,
2013-06-20 02:10:00,57.5,53.3,30.09,SSE,151,0.0,0.0,86,0.00,,---,0.00,VWS V14.00,2013-06-20 06:10:00,
2013-06-20 02:12:00,57.3,53.2,30.09,SSE,150,0.0,0.0,86,0.00,,---,0.00,VWS V14.00,2013-06-20 06:12:00,
2013-06-20 02:13:00,57.3,53.2,30.09,SSE,151,0.0,0.0,86,0.00,,---,0.00,VWS V14.00,2013-06-20 06:13:00,
2013-06-20 02:14:00,57.3,53.2,30.09,SSE,150,0.0,0.0,86,0.00,,---,0.00,VWS V14.00,2013-06-20 06:14:00,
2013-06-20 02:15:00,57.2,53.1,30.09,SSE,151,0.0,0.0,86,0.00,,---,0.00,VWS V14.00,2013-06-20 06:15:00,
2013-06-20 02:17:00,57.1,53.0,30.09,SSE,151,0.0,0.0,86,0.00,,---,0.00,VWS V14.00,2013-06-20 06:17:00,
2013-06-20 02:19:00,57.1,53.0,30.09,SSE,151,0.0,0.0,86,0.00,,---,0.00,VWS V14.00,2013-06-20 06:19:00,
2013-06-20 02:21:00,57.0,52.9,30.09,SSE,151,0.0,0.0,86,0.00,,---,0.00,VWS V14.00,2013-06-20 06:21:00,
2013-06-20 02:22:00,56.9,52.8,30.09,SSE,151,0.0,0.0,86,0.00,,---,0.00,VWS V14.00,2013-06-20 06:22:00,
2013-06-20 02:24:00,56.8,52.7,30.09,SSE,151,0.0,0.0,86,0.00,,---,0.00,VWS V14.00,2013-06-20 06:24:00,
2013-06-20 02:26:00,56.7,52.6,30.09,SSE,151,0.0,0.0,86,0.00,,---,0.00,VWS V14.00,2013-06-20 06:26:00,
2013-06-20 02:27:00,56.7,52.6,30.09,SSE,151,0.0,0.0,86,0.00,,---,0.00,VWS V14.00,2013-06-20 06:27:00,
2013-06-20 02:28:00,56.6,52.5,30.09,SSE,150,0.0,0.0,86,0.00,,---,0.00,VWS V14.00,2013-06-20 06:28:00,
2013-06-20 02:29:00,56.6,52.5,30.09,SSE,150,0.0,0.0,86,0.00,,---,0.00,VWS V14.00,2013-06-20 06:29:00,
2013-06-20 02:32:00,56.5,52.4,30.09,SSE,151,0.0,0.0,86,0.00,,---,0.00,VWS V14.00,2013-06-20 06:32:00,
2013-06-20 02:33:00,56.5,52.4,30.09,SSE,151,0.0,0.0,86,0.00,,---,0.00,VWS V14.00,2013-06-20 06:33:00,
2013-06-20 02:35:00,56.4,52.3,30.09,SSE,151,0.0,0.0,86,0.00,,---,0.00,VWS V14.00,2013-06-20 06:35:00,
2013-06-20 02:37:00,56.3,52.2,30.09,SSE,151,0.0,0.0,86,0.00,,---,0.00,VWS V14.00,2013-06-20 06:37:00,
2013-06-20 02:39:00,56.2,52.4,30.09,SSE,151,0.0,0.0,87,0.00,,---,0.00,VWS V14.00,2013-06-20 06:39:00,
2013-06-20 02:40:00,56.1,52.3,30.09,SSE,151,0.0,0.0,87,0.00,,---,0.00,VWS V14.00,2013-06-20 06:40:00,
2013-06-20 02:41:00,56.0,52.2,30.09,SSE,150,0.0,0.0,87,0.00,,---,0.00,VWS V14.00,2013-06-20 06:41:00,
2013-06-20 02:42:00,56.0,52.2,30.09,SSE,150,0.0,0.0,87,0.00,,---,0.00,VWS V14.00,2013-06-20 06:42:00,
2013-06-20 02:46:00,55.8,52.0,30.09,SSE,150,0.0,0.0,87,0.00,,---,0.00,VWS V14.00,2013-06-20 06:46:00,
2013-06-20 02:47:00,55.8,52.0,30.09,SSE,150,0.0,0.0,87,0.00,,---,0.00,VWS V14.00,2013-06-20 06:47:00,
2013-06-20 02:49:00,55.7,51.9,30.09,SSE,151,0.0,0.0,87,0.00,,---,0.00,VWS V14.00,2013-06-20 06:49:00,
2013-06-20 02:51:00,55.6,51.8,30.09,SSE,151,0.0,0.0,87,0.00,,---,0.00,VWS V14.00,2013-06-20 06:51:00,
2013-06-20 02:53:00,55.6,51.8,30.09,SSE,151,0.0,0.0,87,0.00,,---,0.00,VWS V14.00,2013-06-20 06:53:00,
2013-06-20 02:54:00,55.5,51.7,30.09,SSE,150,0.0,0.0,87,0.00,,---,0.00,VWS V14.00,2013-06-20 06:54:00,
2013-06-20 02:56:00,55.5,51.7,30.09,SSE,151,0.0,0.0,87,0.00,,---,0.00,VWS V14.00,2013-06-20 06:56:00,
2013-06-20 02:57:00,55.4,51.6,30.09,SSE,151,0.0,0.0,87,0.00,,---,0.00,VWS V14.00,2013-06-20 06:57:00,
2013-06-20 02:58:00,55.4,51.6,30.10,SSE,150,0.0,0.0,87,0.00,,---,0.00,VWS V14.00,2013-06-20 06:58:00,
2013-06-20 03:00:00,55.4,51.9,30.10,SSE,151,0.0,0.0,88,0.00,,---,0.00,VWS V14.00,2013-06-20 07:00:00,
2013-06-20 03:01:00,55.4,51.9,30.10,SSE,151,0.0,0.0,88,0.00,,---,0.00,VWS V14.00,2013-06-20 07:01:00,
2013-06-20 03:03:00,55.3,51.8,30.10,SSE,150,0.0,0.0,88,0.00,,---,0.00,VWS V14.00,2013-06-20 07:03:00,
2013-06-20 03:04:00,55.3,51.8,30.10,SSE,151,0.0,0.0,88,0.00,,---,0.00,VWS V14.00,2013-06-20 07:04:00,
2013-06-20 03:06:00,55.2,51.7,30.10,SSE,150,0.0,0.0,88,0.00,,---,0.00,VWS V14.00,2013-06-20 07:06:00,
2013-06-20 03:07:00,55.1,51.6,30.10,SSE,150,0.0,0.0,88,0.00,,---,0.00,VWS V14.00,2013-06-20 07:07:00,
2013-06-20 03:10:00,55.0,51.5,30.10,SSE,151,0.0,0.0,88,0.00,,---,0.00,VWS V14.00,2013-06-20 07:10:00,
2013-06-20 03:11:00,55.0,51.5,30.10,SSE,151,0.0,0.0,88,0.00,,---,0.00,VWS V14.00,2013-06-20 07:11:00,
2013-06-20 03:12:00,55.0,51.5,30.10,SSE,150,0.0,0.0,88,0.00,,---,0.00,VWS V14.00,2013-06-20 07:12:00,
2013-06-20 03:13:00,54.9,51.4,30.10,SSE,150,0.0,0.0,88,0.00,,---,0.00,VWS V14.00,2013-06-20 07:13:00,
2013-06-20 03:15:00,54.9,51.4,30.10,SSE,150,0.0,0.0,88,0.00,,---,0.00,VWS V14.00,2013-06-20 07:15:00,
2013-06-20 03:17:00,54.8,51.3,30.10,SSE,150,0.0,0.0,88,0.00,,---,0.00,VWS V14.00,2013-06-20 07:17:00,
2013-06-20 03:19:00,54.8,51.3,30.10,SSE,151,0.0,0.0,88,0.00,,---,0.00,VWS V14.00,2013-06-20 07:19:00,
2013-06-20 03:20:00,54.8,51.3,30.10,SSE,150,0.0,0.0,88,0.00,,---,0.00,VWS V14.00,2013-06-20 07:20:00,
2013-06-20 03:22:00,54.7,51.2,30.10,SSE,151,0.0,0.0,88,0.00,,---,0.00,VWS V14.00,2013-06-20 07:22:00,
2013-06-20 03:23:00,54.7,51.5,30.10,SSE,150,0.0,0.0,89,0.00,,---,0.00,VWS V14.00,2013-06-20 07:23:00,
2013-06-20 03:25:00,54.7,51.5,30.10,SSE,151,0.0,0.0,89,0.00,,---,0.00,VWS V14.00,2013-06-20 07:25:00,
2013-06-20 03:27:00,54.6,51.4,30.10,SSE,151,0.0,0.0,89,0.00,,---,0.00,VWS V14.00,2013-06-20 07:27:00,
2013-06-20 03:28:00,54.6,51.4,30.10,SSE,150,0.0,0.0,89,0.00,,---,0.00,VWS V14.00,2013-06-20 07:28:00,
2013-06-20 03:32:00,54.5,51.3,30.10,SSE,151,0.0,0.0,89,0.00,,---,0.00,VWS V14.00,2013-06-20 07:32:00,
2013-06-20 03:33:00,54.5,51.3,30.10,SSE,151,0.0,0.0,89,0.00,,---,0.00,VWS V14.00,2013-06-20 07:33:00,
2013-06-20 03:34:00,54.5,51.3,30.10,SSE,150,0.0,0.0,89,0.00,,---,0.00,VWS V14.00,2013-06-20 07:34:00,
2013-06-20 03:37:00,54.4,51.2,30.10,SSE,150,0.0,0.0,89,0.00,,---,0.00,VWS V14.00,2013-06-20 07:37:00,
2013-06-20 03:39:00,54.3,51.1,30.10,SSE,151,0.0,0.0,89,0.00,,---,0.00,VWS V14.00,2013-06-20 07:39:00,
2013-06-20 03:40:00,54.3,51.1,30.10,SSE,151,0.0,0.0,89,0.00,,---,0.00,VWS V14.00,2013-06-20 07:40:00,
2013-06-20 03:44:00,54.3,51.4,30.10,SSE,151,0.0,0.0,90,0.00,,---,0.00,VWS V14.00,2013-06-20 07:44:00,
2013-06-20 03:45:00,54.3,51.4,30.10,SSE,150,0.0,0.0,90,0.00,,---,0.00,VWS V14.00,2013-06-20 07:45:00,
2013-06-20 03:46:00,54.3,51.4,30.10,SSE,151,0.0,0.0,90,0.00,,---,0.00,VWS V14.00,2013-06-20 07:46:00,
2013-06-20 03:48:00,54.3,51.4,30.10,SSE,150,0.0,0.0,90,0.00,,---,0.00,VWS V14.00,2013-06-20 07:48:00,
2013-06-20 03:50:00,54.3,51.4,30.10,SSE,151,0.0,0.0,90,0.00,,---,0.00,VWS V14.00,2013-06-20 07:50:00,
2013-06-20 03:51:00,54.3,51.4,30.10,SSE,151,0.0,0.0,90,0.00,,---,0.00,VWS V14.00,2013-06-20 07:51:00,
2013-06-20 03:52:00,54.3,51.4,30.10,SSE,151,0.0,0.0,90,0.00,,---,0.00,VWS V14.00,2013-06-20 07:52:00,
2013-06-20 03:54:00,54.3,51.4,30.10,SSE,151,0.0,0.0,90,0.00,,---,0.00,VWS V14.00,2013-06-20 07:54:00,
2013-06-20 03:55:00,54.3,51.4,30.10,SSE,151,0.0,0.0,90,0.00,,---,0.00,VWS V14.00,2013-06-20 07:55:00,
2013-06-20 03:56:00,54.3,51.4,30.10,SSE,151,0.0,0.0,90,0.00,,---,0.00,VWS V14.00,2013-06-20 07:56:00,
2013-06-20 03:58:00,54.4,51.5,30.10,SSE,151,0.0,0.0,90,0.00,,---,0.00,VWS V14.00,2013-06-20 07:58:00,
2013-06-20 03:59:00,54.3,51.4,30.10,SSE,150,0.0,0.0,90,0.00,,---,0.00,VWS V14.00,2013-06-20 07:59:00,
2013-06-20 04:00:00,54.3,51.4,30.10,SSE,151,0.0,0.0,90,0.00,,---,0.00,VWS V14.00,2013-06-20 08:00:00,
2013-06-20 04:02:00,54.3,51.4,30.10,SSE,151,0.0,0.0,90,0.00,,---,0.00,VWS V14.00,2013-06-20 08:02:00,
2013-06-20 04:05:00,54.3,51.4,30.10,SSE,151,0.0,0.0,90,0.00,,---,0.00,VWS V14.00,2013-06-20 08:05:00,
2013-06-20 04:06:00,54.3,51.4,30.11,SSE,150,0.0,0.0,90,0.00,,---,0.00,VWS V14.00,2013-06-20 08:06:00,
2013-06-20 04:07:00,54.3,51.4,30.11,SSE,150,0.0,0.0,90,0.00,,---,0.00,VWS V14.00,2013-06-20 08:07:00,
2013-06-20 04:08:00,54.3,51.4,30.11,SSE,150,0.0,0.0,90,0.00,,---,0.00,VWS V14.00,2013-06-20 08:08:00,
2013-06-20 04:10:00,54.2,51.3,30.11,SSE,150,0.0,0.0,90,0.00,,---,0.00,VWS V14.00,2013-06-20 08:10:00,
2013-06-20 04:11:00,54.2,51.3,30.11,SSE,150,0.0,0.0,90,0.00,,---,0.00,VWS V14.00,2013-06-20 08:11:00,
2013-06-20 04:13:00,54.2,51.3,30.11,SSE,150,0.0,0.0,90,0.00,,---,0.00,VWS V14.00,2013-06-20 08:13:00,
2013-06-20 04:14:00,54.2,51.3,30.11,SSE,150,0.0,0.0,90,0.00,,---,0.00,VWS V14.00,2013-06-20 08:14:00,
2013-06-20 04:15:00,54.2,51.3,30.11,SSE,150,0.0,0.0,90,0.00,,---,0.00,VWS V14.00,2013-06-20 08:15:00,
2013-06-20 04:16:00,54.2,51.3,30.11,SSE,150,0.0,0.0,90,0.00,,---,0.00,VWS V14.00,2013-06-20 08:16:00,
2013-06-20 04:17:00,54.2,51.3,30.11,SSE,151,0.0,0.0,90,0.00,,---,0.00,VWS V14.00,2013-06-20 08:17:00,
2013-06-20 04:19:00,54.2,51.3,30.11,SSE,151,0.0,0.0,90,0.00,,---,0.00,VWS V14.00,2013-06-20 08:19:00,
2013-06-20 04:20:00,54.2,51.3,30.10,SSE,151,0.0,0.0,90,0.00,,---,0.00,VWS V14.00,2013-06-20 08:20:00,
2013-06-20 04:22:00,54.2,51.3,30.11,SSE,151,0.0,0.0,90,0.00,,---,0.00,VWS V14.00,2013-06-20 08:22:00,
2013-06-20 04:24:00,54.2,51.3,30.11,SSE,151,0.0,0.0,90,0.00,,---,0.00,VWS V14.00,2013-06-20 08:24:00,
2013-06-20 04:27:00,54.2,51.3,30.11,SSE,151,0.0,0.0,90,0.00,,---,0.00,VWS V14.00,2013-06-20 08:27:00,
2013-06-20 04:28:00,54.2,51.3,30.11,SSE,150,0.0,0.0,90,0.00,,---,0.00,VWS V14.00,2013-06-20 08:28:00,
2013-06-20 04:29:00,54.2,51.3,30.11,SSE,150,0.0,0.0,90,0.00,,---,0.00,VWS V14.00,2013-06-20 08:29:00,
2013-06-20 04:31:00,54.2,51.3,30.11,SSE,150,0.0,0.0,90,0.00,,---,0.00,VWS V14.00,2013-06-20 08:31:00,
2013-06-20 04:32:00,54.2,51.3,30.11,SSE,151,0.0,0.0,90,0.00,,---,0.00,VWS V14.00,2013-06-20 08:32:00,
2013-06-20 04:33:00,54.2,51.3,30.11,SSE,150,0.0,0.0,90,0.00,,---,0.00,VWS V14.00,2013-06-20 08:33:00,
2013-06-20 04:37:00,54.1,51.2,30.11,SSE,151,0.0,0.0,90,0.00,,---,0.00,VWS V14.00,2013-06-20 08:37:00,
2013-06-20 04:38:00,54.1,51.2,30.11,SSE,150,0.0,0.0,90,0.00,,---,0.00,VWS V14.00,2013-06-20 08:38:00,
2013-06-20 04:39:00,54.1,51.2,30.11,SSE,151,0.0,0.0,90,0.00,,---,0.00,VWS V14.00,2013-06-20 08:39:00,
2013-06-20 04:40:00,54.1,51.2,30.11,SSE,151,0.0,0.0,90,0.00,,---,0.00,VWS V14.00,2013-06-20 08:40:00,
2013-06-20 04:43:00,54.0,51.1,30.11,SSE,151,0.0,0.0,90,0.00,,---,0.00,VWS V14.00,2013-06-20 08:43:00,
2013-06-20 04:44:00,54.0,51.1,30.11,SSE,150,0.0,0.0,90,0.00,,---,0.00,VWS V14.00,2013-06-20 08:44:00,
2013-06-20 04:45:00,54.0,51.1,30.11,SSE,151,0.0,0.0,90,0.00,,---,0.00,VWS V14.00,2013-06-20 08:45:00,
2013-06-20 04:46:00,54.1,51.2,30.11,SSE,151,0.0,0.0,90,0.00,,---,0.00,VWS V14.00,2013-06-20 08:46:00,
2013-06-20 04:49:00,54.1,51.2,30.11,SSE,150,0.0,0.0,90,0.00,,---,0.00,VWS V14.00,2013-06-20 08:49:00,
2013-06-20 04:50:00,54.1,51.2,30.11,SSE,151,0.0,0.0,90,0.00,,---,0.00,VWS V14.00,2013-06-20 08:50:00,
2013-06-20 04:51:00,54.0,51.1,30.11,SSE,150,0.0,0.0,90,0.00,,---,0.00,VWS V14.00,2013-06-20 08:51:00,
2013-06-20 04:53:00,54.0,51.1,30.11,SSE,151,0.0,0.0,90,0.00,,---,0.00,VWS V14.00,2013-06-20 08:53:00,
2013-06-20 04:54:00,54.0,51.1,30.11,SSE,150,0.0,0.0,90,0.00,,---,0.00,VWS V14.00,2013-06-20 08:54:00,
2013-06-20 04:55:00,54.0,51.1,30.11,SSE,150,0.0,0.0,90,0.00,,---,0.00,VWS V14.00,2013-06-20 08:55:00,
2013-06-20 04:57:00,54.0,51.1,30.11,SSE,150,0.0,0.0,90,0.00,,---,0.00,VWS V14.00,2013-06-20 08:57:00,
2013-06-20 04:58:00,53.9,51.0,30.11,SSE,151,0.0,0.0,90,0.00,,---,0.00,VWS V14.00,2013-06-20 08:58:00,
2013-06-20 05:00:00,53.9,51.0,30.11,SSE,151,0.0,0.0,90,0.00,,---,0.00,VWS V14.00,2013-06-20 09:00:00,
2013-06-20 05:01:00,53.9,51.0,30.11,SSE,150,0.0,0.0,90,0.00,,---,0.00,VWS V14.00,2013-06-20 09:01:00,
2013-06-20 05:03:00,53.9,51.3,30.11,SSE,151,0.0,0.0,91,0.00,,---,0.00,VWS V14.00,2013-06-20 09:03:00,
2013-06-20 05:05:00,53.9,51.3,30.11,SSE,150,0.0,0.0,91,0.00,,---,0.00,VWS V14.00,2013-06-20 09:05:00,
2013-06-20 05:06:00,53.9,51.3,30.11,SSE,150,0.0,0.0,91,0.00,,---,0.00,VWS V14.00,2013-06-20 09:06:00,
2013-06-20 05:07:00,53.9,51.3,30.11,SSE,150,0.0,0.0,91,0.00,,---,0.00,VWS V14.00,2013-06-20 09:07:00,
2013-06-20 05:08:00,53.9,51.3,30.11,SSE,150,0.0,0.0,91,0.00,,---,0.00,VWS V14.00,2013-06-20 09:08:00,
2013-06-20 05:09:00,53.9,51.3,30.11,SSE,150,0.0,0.0,91,0.00,,---,0.00,VWS V14.00,2013-06-20 09:09:00,
2013-06-20 05:12:00,53.9,51.3,30.11,SSE,151,0.0,0.0,91,0.00,,---,0.00,VWS V14.00,2013-06-20 09:12:00,
2013-06-20 05:14:00,53.8,51.2,30.11,SSE,151,0.0,0.0,91,0.00,,---,0.00,VWS V14.00,2013-06-20 09:14:00,
2013-06-20 05:15:00,53.8,51.2,30.11,SSE,150,0.0,0.0,91,0.00,,---,0.00,VWS V14.00,2013-06-20 09:15:00,
2013-06-20 05:16:00,53.8,51.2,30.11,SSE,151,0.0,0.0,91,0.00,,---,0.00,VWS V14.00,2013-06-20 09:16:00,
2013-06-20 05:19:00,53.8,51.2,30.11,SSE,151,0.0,0.0,91,0.00,,---,0.00,VWS V14.00,2013-06-20 09:19:00,
2013-06-20 05:20:00,53.9,51.3,30.11,SSE,150,0.0,0.0,91,0.00,,---,0.00,VWS V14.00,2013-06-20 09:20:00,
2013-06-20 05:21:00,53.9,51.3,30.11,SSE,151,0.0,0.0,91,0.00,,---,0.00,VWS V14.00,2013-06-20 09:21:00,
2013-06-20 05:23:00,53.9,51.3,30.11,SSE,150,0.0,0.0,91,0.00,,---,0.00,VWS V14.00,2013-06-20 09:23:00,
2013-06-20 05:24:00,53.9,51.3,30.11,SSE,150,0.0,0.0,91,0.00,,---,0.00,VWS V14.00,2013-06-20 09:24:00,
2013-06-20 05:25:00,53.9,51.3,30.11,SSE,151,0.0,0.0,91,0.00,,---,0.00,VWS V14.00,2013-06-20 09:25:00,
2013-06-20 05:27:00,53.9,51.3,30.11,SSE,151,0.0,0.0,91,0.00,,---,0.00,VWS V14.00,2013-06-20 09:27:00,
2013-06-20 05:28:00,53.9,51.3,30.11,SSE,150,0.0,0.0,91,0.00,,---,0.00,VWS V14.00,2013-06-20 09:28:00,
2013-06-20 05:30:00,53.9,51.3,30.11,SSE,151,0.0,0.0,91,0.00,,---,0.00,VWS V14.00,2013-06-20 09:30:00,
2013-06-20 05:33:00,54.0,51.4,30.11,SSE,151,0.0,0.0,91,0.00,,---,0.00,VWS V14.00,2013-06-20 09:33:00,
2013-06-20 05:34:00,54.0,51.4,30.11,SSE,151,0.0,0.0,91,0.00,,---,0.00,VWS V14.00,2013-06-20 09:34:00,
2013-06-20 05:35:00,54.1,51.5,30.12,SSE,151,0.0,0.0,91,0.00,,---,0.00,VWS V14.00,2013-06-20 09:35:00,
2013-06-20 05:36:00,54.1,51.5,30.12,SSE,150,0.0,0.0,91,0.00,,---,0.00,VWS V14.00,2013-06-20 09:36:00,
2013-06-20 05:38:00,54.1,51.5,30.11,SSE,150,0.0,0.0,91,0.00,,---,0.00,VWS V14.00,2013-06-20 09:38:00,
2013-06-20 05:39:00,54.0,51.4,30.12,SSE,150,0.0,0.0,91,0.00,,---,0.00,VWS V14.00,2013-06-20 09:39:00,
2013-06-20 05:40:00,54.0,51.4,30.12,SSE,151,0.0,0.0,91,0.00,,---,0.00,VWS V14.00,2013-06-20 09:40:00,
2013-06-20 05:41:00,54.0,51.4,30.12,SSE,150,0.0,0.0,91,0.00,,---,0.00,VWS V14.00,2013-06-20 09:41:00,
2013-06-20 05:43:00,54.0,51.4,30.12,SSE,151,0.0,0.0,91,0.00,,---,0.00,VWS V14.00,2013-06-20 09:43:00,
2013-06-20 05:45:00,54.0,51.4,30.12,SSE,151,0.0,0.0,91,0.00,,---,0.00,VWS V14.00,2013-06-20 09:45:00,
2013-06-20 05:46:00,54.1,51.5,30.12,SSE,151,0.0,0.0,91,0.00,,---,0.00,VWS V14.00,2013-06-20 09:46:00,
2013-06-20 05:47:00,54.1,51.5,30.12,SSE,151,0.0,0.0,91,0.00,,---,0.00,VWS V14.00,2013-06-20 09:47:00,
2013-06-20 05:48:00,54.1,51.5,30.12,SSE,150,0.0,0.0,91,0.00,,---,0.00,VWS V14.00,2013-06-20 09:48:00,
2013-06-20 05:51:00,54.2,51.6,30.12,SSE,151,0.0,0.0,91,0.00,,---,0.00,VWS V14.00,2013-06-20 09:51:00,
2013-06-20 05:52:00,54.2,51.6,30.12,SSE,151,0.0,0.0,91,0.00,,---,0.00,VWS V14.00,2013-06-20 09:52:00,
2013-06-20 05:53:00,54.2,51.6,30.12,SSE,151,0.0,0.0,91,0.00,,---,0.00,VWS V14.00,2013-06-20 09:53:00,
2013-06-20 05:55:00,54.2,51.6,30.12,SSE,151,0.0,0.0,91,0.00,,---,0.00,VWS V14.00,2013-06-20 09:55:00,
2013-06-20 05:57:00,54.3,51.7,30.12,SSE,151,0.0,0.0,91,0.00,,---,0.00,VWS V14.00,2013-06-20 09:57:00,
2013-06-20 05:59:00,54.3,51.7,30.12,SSE,151,0.0,0.0,91,0.00,,---,0.00,VWS V14.00,2013-06-20 09:59:00,
2013-06-20 06:00:00,54.3,51.7,30.12,SSE,150,0.0,0.0,91,0.00,,---,0.00,VWS V14.00,2013-06-20 10:00:00,
2013-06-20 06:03:00,54.3,51.7,30.12,SSE,151,0.0,0.0,91,0.00,,---,0.00,VWS V14.00,2013-06-20 10:03:00,
2013-06-20 06:04:00,54.3,51.7,30.12,SSE,151,0.0,0.0,91,0.00,,---,0.00,VWS V14.00,2013-06-20 10:04:00,
2013-06-20 06:05:00,54.3,51.7,30.12,SSE,150,0.0,0.0,91,0.00,,---,0.00,VWS V14.00,2013-06-20 10:05:00,
2013-06-20 06:06:00,54.3,51.7,30.12,SSE,151,0.0,0.0,91,0.00,,---,0.00,VWS V14.00,2013-06-20 10:06:00,
2013-06-20 06:09:00,54.3,51.7,30.12,SSE,151,0.0,0.0,91,0.00,,---,0.00,VWS V14.00,2013-06-20 10:09:00,
2013-06-20 06:11:00,54.2,51.6,30.12,SSE,151,0.0,0.0,91,0.00,,---,0.00,VWS V14.00,2013-06-20 10:11:00,
2013-06-20 06:14:00,54.1,51.5,30.12,SSE,151,0.0,0.0,91,0.00,,---,0.00,VWS V14.00,2013-06-20 10:14:00,
2013-06-20 06:16:00,54.1,51.5,30.12,SSE,151,0.0,0.0,91,0.00,,---,0.00,VWS V14.00,2013-06-20 10:16:00,
2013-06-20 06:18:00,54.0,51.4,30.12,SSE,150,0.0,0.0,91,0.00,,---,0.00,VWS V14.00,2013-06-20 10:18:00,
2013-06-20 06:19:00,54.0,51.4,30.12,SSE,151,0.0,0.0,91,0.00,,---,0.00,VWS V14.00,2013-06-20 10:19:00,
2013-06-20 06:20:00,53.9,51.3,30.12,SSE,150,0.0,0.0,91,0.00,,---,0.00,VWS V14.00,2013-06-20 10:20:00,
2013-06-20 06:24:00,53.9,51.3,30.12,SSE,151,0.0,0.0,91,0.00,,---,0.00,VWS V14.00,2013-06-20 10:24:00,
2013-06-20 06:26:00,53.9,51.3,30.12,SSE,151,0.0,0.0,91,0.00,,---,0.00,VWS V14.00,2013-06-20 10:26:00,
2013-06-20 06:28:00,53.8,51.2,30.12,SSE,150,0.0,0.0,91,0.00,,---,0.00,VWS V14.00,2013-06-20 10:28:00,
2013-06-20 06:29:00,53.8,51.2,30.12,SSE,151,0.0,0.0,91,0.00,,---,0.00,VWS V14.00,2013-06-20 10:29:00,
2013-06-20 06:30:00,53.8,51.2,30.12,SSE,151,0.0,0.0,91,0.00,,---,0.00,VWS V14.00,2013-06-20 10:30:00,
2013-06-20 06:32:00,53.8,51.2,30.12,SSE,150,0.0,0.0,91,0.00,,---,0.00,VWS V14.00,2013-06-20 10:32:00,
2013-06-20 06:33:00,53.9,51.3,30.12,SSE,151,0.0,0.0,91,0.00,,---,0.00,VWS V14.00,2013-06-20 10:33:00,
2013-06-20 06:35:00,53.9,51.3,30.12,SSE,150,0.0,0.0,91,0.00,,---,0.00,VWS V14.00,2013-06-20 10:35:00,
2013-06-20 06:37:00,54.0,51.4,30.12,SSE,150,0.0,0.0,91,0.00,,---,0.00,VWS V14.00,2013-06-20 10:37:00,
2013-06-20 06:38:00,54.0,51.4,30.12,SSE,150,0.0,0.0,91,0.00,,---,0.00,VWS V14.00,2013-06-20 10:38:00,
2013-06-20 06:40:00,54.1,51.5,30.12,SSE,151,0.0,0.0,91,0.00,,---,0.00,VWS V14.00,2013-06-20 10:40:00,
2013-06-20 06:41:00,54.2,51.9,30.12,SSE,151,0.0,0.0,92,0.00,,---,0.00,VWS V14.00,2013-06-20 10:41:00,
2013-06-20 06:43:00,54.3,52.0,30.12,SSE,151,0.0,0.0,92,0.00,,---,0.00,VWS V14.00,2013-06-20 10:43:00,
2013-06-20 06:44:00,54.4,52.1,30.12,SSE,151,0.0,0.0,92,0.00,,---,0.00,VWS V14.00,2013-06-20 10:44:00,
2013-06-20 06:45:00,54.5,52.2,30.12,SSE,151,0.0,0.0,92,0.00,,---,0.00,VWS V14.00,2013-06-20 10:45:00,
2013-06-20 06:47:00,54.8,52.5,30.12,SSE,151,0.0,0.0,92,0.00,,---,0.00,VWS V14.00,2013-06-20 10:47:00,
2013-06-20 06:49:00,55.0,52.7,30.12,SSE,150,0.0,0.0,92,0.00,,---,0.00,VWS V14.00,2013-06-20 10:49:00,
2013-06-20 06:51:00,55.2,52.9,30.12,SSE,150,0.0,0.0,92,0.00,,---,0.00,VWS V14.00,2013-06-20 10:51:00,
2013-06-20 06:52:00,55.4,53.1,30.12,SSE,150,0.0,0.0,92,0.00,,---,0.00,VWS V14.00,2013-06-20 10:52:00,
2013-06-20 06:53:00,55.4,53.1,30.12,SSE,150,0.0,0.0,92,0.00,,---,0.00,VWS V14.00,2013-06-20 10:53:00,
2013-06-20 06:54:00,55.5,53.2,30.12,SSE,150,0.0,0.0,92,0.00,,---,0.00,VWS V14.00,2013-06-20 10:54:00,
2013-06-20 06:55:00,55.6,53.3,30.12,SSE,151,0.0,0.0,92,0.00,,---,0.00,VWS V14.00,2013-06-20 10:55:00,
2013-06-20 06:58:00,55.7,53.1,30.12,SSE,151,0.0,0.0,91,0.00,,---,0.00,VWS V14.00,2013-06-20 10:58:00,
2013-06-20 06:59:00,55.8,53.2,30.12,SSE,151,0.0,0.0,91,0.00,,---,0.00,VWS V14.00,2013-06-20 10:59:00,
2013-06-20 07:00:00,55.9,53.3,30.12,SSE,151,0.0,0.0,91,0.00,,---,0.00,VWS V14.00,2013-06-20 11:00:00,
2013-06-20 07:03:00,55.9,53.3,30.13,SSE,151,0.0,0.0,91,0.00,,---,0.00,VWS V14.00,2013-06-20 11:03:00,
2013-06-20 07:04:00,56.0,53.4,30.13,SSE,150,0.0,0.0,91,0.00,,---,0.00,VWS V14.00,2013-06-20 11:04:00,
2013-06-20 07:06:00,56.2,53.6,30.13,SSE,150,0.0,0.0,91,0.00,,---,0.00,VWS V14.00,2013-06-20 11:06:00,
2013-06-20 07:08:00,56.4,53.8,30.13,SSE,151,0.0,0.0,91,0.00,,---,0.00,VWS V14.00,2013-06-20 11:08:00,
2013-06-20 07:09:00,56.5,53.9,30.13,SSE,150,0.0,0.0,91,0.00,,---,0.00,VWS V14.00,2013-06-20 11:09:00,
2013-06-20 07:12:00,56.7,53.8,30.13,SSE,150,0.0,0.0,90,0.00,,---,0.00,VWS V14.00,2013-06-20 11:12:00,
2013-06-20 07:14:00,56.9,54.0,30.13,SSE,151,0.0,0.0,90,0.00,,---,0.00,VWS V14.00,2013-06-20 11:14:00,
2013-06-20 07:15:00,56.9,54.0,30.13,SSE,151,0.0,0.0,90,0.00,,---,0.00,VWS V14.00,2013-06-20 11:15:00,
2013-06-20 07:17:00,57.1,54.2,30.13,SSE,151,0.0,0.0,90,0.00,,---,0.00,VWS V14.00,2013-06-20 11:17:00,
2013-06-20 07:18:00,57.3,54.4,30.13,SSE,150,0.0,0.0,90,0.00,,---,0.00,VWS V14.00,2013-06-20 11:18:00,
2013-06-20 07:19:00,57.5,54.6,30.13,SSE,151,0.0,0.0,90,0.00,,---,0.00,VWS V14.00,2013-06-20 11:19:00,
2013-06-20 07:21:00,57.8,54.9,30.13,SSE,151,0.0,0.0,90,0.00,,---,0.00,VWS V14.00,2013-06-20 11:21:00,
2013-06-20 07:22:00,58.0,55.1,30.13,SSE,150,0.0,0.0,90,0.00,,---,0.00,VWS V14.00,2013-06-20 11:22:00,
2013-06-20 07:23:00,58.1,55.2,30.13,SSE,151,0.0,0.0,90,0.00,,---,0.00,VWS V14.00,2013-06-20 11:23:00,
2013-06-20 07:27:00,59.0,55.8,30.13,SSE,150,0.0,0.0,89,0.00,,---,0.00,VWS V14.00,2013-06-20 11:27:00,
2013-06-20 07:28:00,59.0,55.5,30.13,SSE,150,0.0,0.0,88,0.00,,---,0.00,VWS V14.00,2013-06-20 11:28:00,
2013-06-20 07:29:00,59.2,55.7,30.13,SSE,150,0.0,0.0,88,0.00,,---,0.00,VWS V14.00,2013-06-20 11:29:00,
2013-06-20 07:32:00,59.7,55.8,30.13,SSE,151,0.0,0.0,87,0.00,,---,0.00,VWS V14.00,2013-06-20 11:32:00,
2013-06-20 07:33:00,59.8,55.9,30.13,SSE,151,0.0,0.0,87,0.00,,---,0.00,VWS V14.00,2013-06-20 11:33:00,
2013-06-20 07:34:00,59.9,56.0,30.13,SSE,151,0.0,0.0,87,0.00,,---,0.00,VWS V14.00,2013-06-20 11:34:00,
2013-06-20 07:35:00,59.9,56.0,30.13,SSE,151,0.0,0.0,87,0.00,,---,0.00,VWS V14.00,2013-06-20 11:35:00,
2013-06-20 07:36:00,60.1,56.2,30.13,SSE,151,0.0,0.0,87,0.00,,---,0.00,VWS V14.00,2013-06-20 11:36:00,
2013-06-20 07:39:00,60.6,56.4,30.13,SSE,151,0.0,0.0,86,0.00,,---,0.00,VWS V14.00,2013-06-20 11:39:00,
2013-06-20 07:40:00,60.9,56.4,30.13,SSE,150,0.0,0.0,85,0.00,,---,0.00,VWS V14.00,2013-06-20 11:40:00,
2013-06-20 07:41:00,61.0,56.5,30.13,SSE,150,0.0,0.0,85,0.00,,---,0.00,VWS V14.00,2013-06-20 11:41:00,
2013-06-20 07:42:00,61.1,56.6,30.13,SSE,150,0.0,0.0,85,0.00,,---,0.00,VWS V14.00,2013-06-20 11:42:00,
2013-06-20 07:45:00,61.6,56.4,30.13,SSE,150,0.0,0.0,83,0.00,,---,0.00,VWS V14.00,2013-06-20 11:45:00,
2013-06-20 07:46:00,61.7,56.5,30.13,SSE,151,0.0,0.0,83,0.00,,---,0.00,VWS V14.00,2013-06-20 11:46:00,
2013-06-20 07:47:00,61.9,56.7,30.13,SSE,150,0.0,0.0,83,0.00,,---,0.00,VWS V14.00,2013-06-20 11:47:00,
2013-06-20 07:48:00,62.0,56.8,30.13,SSE,150,0.0,0.0,83,0.00,,---,0.00,VWS V14.00,2013-06-20 11:48:00,
2013-06-20 07:50:00,62.4,56.8,30.13,SSE,150,0.0,0.0,82,0.00,,---,0.00,VWS V14.00,2013-06-20 11:50:00,
2013-06-20 07:51:00,62.5,56.9,30.13,SSE,150,0.0,0.0,82,0.00,,---,0.00,VWS V14.00,2013-06-20 11:51:00,
2013-06-20 07:52:00,62.8,56.9,30.13,SSE,152,0.0,0.0,81,0.00,,---,0.00,VWS V14.00,2013-06-20 11:52:00,
2013-06-20 07:53:00,62.9,57.0,30.13,SSE,159,0.0,0.0,81,0.00,,---,0.00,VWS V14.00,2013-06-20 11:53:00,
2013-06-20 07:56:00,63.3,56.7,30.13,SSE,159,0.0,0.0,79,0.00,,---,0.00,VWS V14.00,2013-06-20 11:56:00,
2013-06-20 07:57:00,63.3,56.7,30.13,SSE,159,0.0,0.0,79,0.00,,---,0.00,VWS V14.00,2013-06-20 11:57:00,
2013-06-20 07:58:00,63.4,56.8,30.13,SSE,159,0.0,0.0,79,0.00,,---,0.00,VWS V14.00,2013-06-20 11:58:00,
2013-06-20 08:00:00,63.5,56.5,30.13,SSE,163,0.0,0.0,78,0.00,,---,0.00,VWS V14.00,2013-06-20 12:00:00,
2013-06-20 08:02:00,63.6,56.3,30.13,South,170,0.0,0.0,77,0.00,,---,0.00,VWS V14.00,2013-06-20 12:02:00,
2013-06-20 08:03:00,63.8,56.8,30.13,South,170,0.0,0.0,78,0.00,,---,0.00,VWS V14.00,2013-06-20 12:03:00,
2013-06-20 08:05:00,63.9,56.9,30.12,South,169,0.0,0.0,78,0.00,,---,0.00,VWS V14.00,2013-06-20 12:05:00,
2013-06-20 08:08:00,64.0,56.7,30.13,South,170,0.0,0.0,77,0.00,,---,0.00,VWS V14.00,2013-06-20 12:08:00,
2013-06-20 08:09:00,64.1,57.1,30.13,South,170,0.0,0.0,78,0.00,,---,0.00,VWS V14.00,2013-06-20 12:09:00,
2013-06-20 08:11:00,64.3,57.0,30.13,South,170,0.0,0.0,77,0.00,,---,0.00,VWS V14.00,2013-06-20 12:11:00,
2013-06-20 08:13:00,64.5,57.1,30.13,South,170,0.0,0.0,77,0.00,,---,0.00,VWS V14.00,2013-06-20 12:13:00,
2013-06-20 08:14:00,64.6,57.2,30.13,South,172,0.0,0.0,77,0.00,,---,0.00,VWS V14.00,2013-06-20 12:14:00,
2013-06-20 08:15:00,64.7,57.3,30.13,South,173,0.0,0.0,77,0.00,,---,0.00,VWS V14.00,2013-06-20 12:15:00,
2013-06-20 08:17:00,65.0,57.3,30.13,South,172,0.0,0.0,76,0.00,,---,0.00,VWS V14.00,2013-06-20 12:17:00,
2013-06-20 08:20:00,65.3,57.2,30.13,South,173,0.0,0.0,75,0.00,,---,0.00,VWS V14.00,2013-06-20 12:20:00,
2013-06-20 08:21:00,65.4,56.9,30.13,South,173,0.0,0.0,74,0.00,,---,0.00,VWS V14.00,2013-06-20 12:21:00,
2013-06-20 08:23:00,65.5,57.0,30.13,South,175,0.0,0.0,74,0.00,,---,0.00,VWS V14.00,2013-06-20 12:23:00,
2013-06-20 08:26:00,65.7,57.2,30.13,South,175,0.0,0.0,74,0.00,,---,0.00,VWS V14.00,2013-06-20 12:26:00,
2013-06-20 08:27:00,65.8,56.9,30.14,South,170,0.0,0.0,73,0.00,,---,0.00,VWS V14.00,2013-06-20 12:27:00,
2013-06-20 08:29:00,66.0,56.7,30.14,South,170,0.0,0.0,72,0.00,,---,0.00,VWS V14.00,2013-06-20 12:29:00,
2013-06-20 08:30:00,66.2,56.5,30.14,South,169,0.0,0.0,71,0.00,,---,0.00,VWS V14.00,2013-06-20 12:30:00,
2013-06-20 08:31:00,66.3,56.6,30.14,South,170,0.0,0.0,71,0.00,,---,0.00,VWS V14.00,2013-06-20 12:31:00,
2013-06-20 08:33:00,66.5,56.8,30.14,South,171,0.0,0.0,71,0.00,,---,0.00,VWS V14.00,2013-06-20 12:33:00,
2013-06-20 08:34:00,66.6,56.9,30.14,South,171,0.0,0.0,71,0.00,,---,0.00,VWS V14.00,2013-06-20 12:34:00,
2013-06-20 08:36:00,67.0,56.5,30.14,South,169,0.0,0.0,69,0.00,,---,0.00,VWS V14.00,2013-06-20 12:36:00,
2013-06-20 08:38:00,67.2,57.1,30.14,South,169,0.0,0.0,70,0.00,,---,0.00,VWS V14.00,2013-06-20 12:38:00,
2013-06-20 08:40:00,67.4,56.9,30.14,South,169,0.0,0.0,69,0.00,,---,0.00,VWS V14.00,2013-06-20 12:40:00,
2013-06-20 08:41:00,67.5,57.0,30.14,South,169,0.0,0.0,69,0.00,,---,0.00,VWS V14.00,2013-06-20 12:41:00,
2013-06-20 08:43:00,67.5,56.6,30.14,South,169,0.0,0.0,68,0.00,,---,0.00,VWS V14.00,2013-06-20 12:43:00,
2013-06-20 08:44:00,67.5,56.6,30.14,South,170,0.0,0.0,68,0.00,,---,0.00,VWS V14.00,2013-06-20 12:44:00,
2013-06-20 08:45:00,67.6,56.7,30.14,South,171,0.0,0.0,68,0.00,,---,0.00,VWS V14.00,2013-06-20 12:45:00,
2013-06-20 08:48:00,67.8,56.9,30.14,SSE,167,0.0,0.0,68,0.00,,---,0.00,VWS V14.00,2013-06-20 12:48:00,
2013-06-20 08:49:00,67.9,57.0,30.14,SSE,167,0.0,0.0,68,0.00,,---,0.00,VWS V14.00,2013-06-20 12:49:00,
2013-06-20 08:50:00,68.0,57.1,30.14,SSE,167,0.0,0.0,68,0.00,,---,0.00,VWS V14.00,2013-06-20 12:50:00,
2013-06-20 08:52:00,68.3,57.3,30.14,South,171,0.0,0.0,68,0.00,,---,0.00,VWS V14.00,2013-06-20 12:52:00,
2013-06-20 08:54:00,68.6,57.6,30.14,South,177,0.0,0.0,68,0.00,,---,0.00,VWS V14.00,2013-06-20 12:54:00,
2013-06-20 08:55:00,68.8,57.4,30.14,South,185,0.0,0.0,67,0.00,,---,0.00,VWS V14.00,2013-06-20 12:55:00,
2013-06-20 08:57:00,69.1,57.3,30.14,South,184,0.0,0.0,66,0.00,,---,0.00,VWS V14.00,2013-06-20 12:57:00,
2013-06-20 08:59:00,69.4,56.7,30.14,South,186,0.0,0.0,64,0.00,,---,0.00,VWS V14.00,2013-06-20 12:59:00,
2013-06-20 09:00:00,69.5,56.8,30.14,South,184,0.0,0.0,64,0.00,,---,0.00,VWS V14.00,2013-06-20 13:00:00,
2013-06-20 09:01:00,69.8,57.1,30.14,South,184,0.0,0.0,64,0.00,,---,0.00,VWS V14.00,2013-06-20 13:01:00,
2013-06-20 09:03:00,70.1,57.4,30.14,South,183,0.0,0.0,64,0.00,,---,0.00,VWS V14.00,2013-06-20 13:03:00,
2013-06-20 09:05:00,70.4,57.2,30.14,South,183,0.0,0.0,63,0.00,,---,0.00,VWS V14.00,2013-06-20 13:05:00,
2013-06-20 09:06:00,70.5,57.3,30.14,South,184,0.0,0.0,63,0.00,,---,0.00,VWS V14.00,2013-06-20 13:06:00,
2013-06-20 09:07:00,70.7,57.5,30.14,South,180,0.0,0.0,63,0.00,,---,0.00,VWS V14.00,2013-06-20 13:07:00,
2013-06-20 09:11:00,70.8,57.6,30.14,South,181,0.0,0.0,63,0.00,,---,0.00,VWS V14.00,2013-06-20 13:11:00,
2013-06-20 09:12:00,70.8,57.6,30.14,South,181,0.0,0.0,63,0.00,,---,0.00,VWS V14.00,2013-06-20 13:12:00,
2013-06-20 09:13:00,70.9,57.7,30.14,South,181,0.0,0.0,63,0.00,,---,0.00,VWS V14.00,2013-06-20 13:13:00,
2013-06-20 09:17:00,71.4,57.7,30.14,South,184,0.0,0.0,62,0.00,,---,0.00,VWS V14.00,2013-06-20 13:17:00,
2013-06-20 09:18:00,71.7,57.5,30.14,South,190,0.0,0.0,61,0.00,,---,0.00,VWS V14.00,2013-06-20 13:18:00,
2013-06-20 09:19:00,71.8,57.6,30.14,South,186,0.0,0.0,61,0.00,,---,0.00,VWS V14.00,2013-06-20 13:19:00,
2013-06-20 09:21:00,72.0,57.4,30.14,South,182,0.0,0.0,60,0.00,,---,0.00,VWS V14.00,2013-06-20 13:21:00,
2013-06-20 09:22:00,72.0,57.4,30.14,South,184,0.0,0.0,60,0.00,,---,0.00,VWS V14.00,2013-06-20 13:22:00,
2013-06-20 09:23:00,72.0,57.4,30.14,South,184,0.0,0.0,60,0.00,,---,0.00,VWS V14.00,2013-06-20 13:23:00,
2013-06-20 09:25:00,72.0,57.8,30.14,South,184,0.0,0.0,61,0.00,,---,0.00,VWS V14.00,2013-06-20 13:25:00,
2013-06-20 09:26:00,72.1,57.5,30.14,South,184,0.0,0.0,60,0.00,,---,0.00,VWS V14.00,2013-06-20 13:26:00,
2013-06-20 09:27:00,72.2,57.6,30.14,South,184,0.0,0.0,60,0.00,,---,0.00,VWS V14.00,2013-06-20 13:27:00,
2013-06-20 09:29:00,72.3,57.7,30.14,South,184,0.0,0.0,60,0.00,,---,0.00,VWS V14.00,2013-06-20 13:29:00,
2013-06-20 09:31:00,72.4,57.8,30.14,SSW,200,0.0,0.0,60,0.00,,---,0.00,VWS V14.00,2013-06-20 13:31:00,
2013-06-20 09:33:00,72.5,57.4,30.14,SW,218,0.0,0.0,59,0.00,,---,0.00,VWS V14.00,2013-06-20 13:33:00,
2013-06-20 09:35:00,72.8,57.7,30.14,SW,218,0.0,0.0,59,0.00,,---,0.00,VWS V14.00,2013-06-20 13:35:00,
2013-06-20 09:37:00,73.2,57.5,30.14,SW,218,0.0,0.0,58,0.00,,---,0.00,VWS V14.00,2013-06-20 13:37:00,
2013-06-20 09:38:00,73.4,57.7,30.14,SW,220,0.0,0.0,58,0.00,,---,0.00,VWS V14.00,2013-06-20 13:38:00,
2013-06-20 09:39:00,73.4,57.3,30.14,WSW,239,0.0,0.0,57,0.00,,---,0.00,VWS V14.00,2013-06-20 13:39:00,
2013-06-20 09:40:00,73.3,57.2,30.14,WSW,239,0.0,0.0,57,0.00,,---,0.00,VWS V14.00,2013-06-20 13:40:00,
2013-06-20 09:41:00,73.3,57.2,30.14,WSW,239,0.0,0.0,57,0.00,,---,0.00,VWS V14.00,2013-06-20 13:41:00,
2013-06-20 09:42:00,73.1,57.0,30.14,WSW,238,0.0,0.0,57,0.00,,---,0.00,VWS V14.00,2013-06-20 13:42:00,
2013-06-20 09:46:00,72.9,57.3,30.14,WSW,238,0.0,0.0,58,0.00,,---,0.00,VWS V14.00,2013-06-20 13:46:00,
2013-06-20 09:47:00,72.9,57.8,30.14,WSW,239,0.0,0.0,59,0.00,,---,0.00,VWS V14.00,2013-06-20 13:47:00,
2013-06-20 09:49:00,73.3,57.7,30.14,WSW,238,0.0,0.0,58,0.00,,---,0.00,VWS V14.00,2013-06-20 13:49:00,
2013-06-20 09:50:00,73.4,57.7,30.14,WSW,238,0.0,0.0,58,0.00,,---,0.00,VWS V14.00,2013-06-20 13:50:00,
2013-06-20 09:51:00,73.6,57.9,30.14,WSW,238,0.0,0.0,58,0.00,,---,0.00,VWS V14.00,2013-06-20 13:51:00,
2013-06-20 09:54:00,73.8,57.6,30.14,WSW,239,0.0,0.0,57,0.00,,---,0.00,VWS V14.00,2013-06-20 13:54:00,
2013-06-20 09:55:00,73.7,57.5,30.14,WSW,239,0.0,0.0,57,0.00,,---,0.00,VWS V14.00,2013-06-20 13:55:00,
2013-06-20 09:56:00,73.7,57.5,30.14,WSW,238,0.0,0.0,57,0.00,,---,0.00,VWS V14.00,2013-06-20 13:56:00,
2013-06-20 09:57:00,73.6,57.4,30.14,WSW,239,0.0,0.0,57,0.00,,---,0.00,VWS V14.00,2013-06-20 13:57:00,
2013-06-20 09:58:00,73.5,57.8,30.14,WSW,239,0.0,0.0,58,0.00,,---,0.00,VWS V14.00,2013-06-20 13:58:00,
2013-06-20 10:01:00,73.5,57.8,30.14,WSW,238,0.0,0.0,58,0.00,,---,0.00,VWS V14.00,2013-06-20 14:01:00,
2013-06-20 10:03:00,73.7,58.0,30.14,WSW,242,0.0,0.0,58,0.00,,---,0.00,VWS V14.00,2013-06-20 14:03:00,
2013-06-20 10:04:00,74.0,58.3,30.14,WSW,242,0.0,0.0,58,0.00,,---,0.00,VWS V14.00,2013-06-20 14:04:00,
2013-06-20 10:06:00,74.5,57.8,30.14,WSW,242,0.0,0.0,56,0.00,,---,0.00,VWS V14.00,2013-06-20 14:06:00,
2013-06-20 10:07:00,74.6,57.9,30.14,WSW,242,0.0,0.0,56,0.00,,---,0.00,VWS V14.00,2013-06-20 14:07:00,
2013-06-20 10:10:00,74.7,58.0,30.14,WSW,248,0.0,0.0,56,0.00,,---,0.00,VWS V14.00,2013-06-20 14:10:00,
2013-06-20 10:12:00,74.9,58.2,30.14,WSW,248,0.0,0.0,56,0.00,,---,0.00,VWS V14.00,2013-06-20 14:12:00,
2013-06-20 10:13:00,74.9,58.2,30.14,WSW,248,0.0,0.0,56,0.00,,---,0.00,VWS V14.00,2013-06-20 14:13:00,
2013-06-20 10:17:00,75.5,58.2,30.14,WSW,249,0.0,0.0,55,0.00,,---,0.00,VWS V14.00,2013-06-20 14:17:00,
2013-06-20 10:18:00,75.7,58.4,30.13,WSW,250,0.0,0.0,55,0.00,,---,0.00,VWS V14.00,2013-06-20 14:18:00,
2013-06-20 10:19:00,76.1,58.3,30.14,WSW,250,0.0,0.0,54,0.00,,---,0.00,VWS V14.00,2013-06-20 14:19:00,
2013-06-20 10:21:00,76.1,58.3,30.14,WSW,250,0.0,0.0,54,0.00,,---,0.00,VWS V14.00,2013-06-20 14:21:00,
2013-06-20 10:22:00,76.3,58.5,30.14,WSW,250,0.0,0.0,54,0.00,,---,0.00,VWS V14.00,2013-06-20 14:22:00,
2013-06-20 10:23:00,76.4,58.5,30.13,WSW,250,0.0,0.0,54,0.00,,---,0.00,VWS V14.00,2013-06-20 14:23:00,
2013-06-20 10:24:00,76.4,58.5,30.13,WSW,250,0.0,0.0,54,0.00,,---,0.00,VWS V14.00,2013-06-20 14:24:00,
2013-06-20 10:27:00,76.7,58.3,30.13,WSW,258,0.0,0.0,53,0.00,,---,0.00,VWS V14.00,2013-06-20 14:27:00,
2013-06-20 10:29:00,76.8,58.4,30.13,WSW,258,0.0,0.0,53,0.00,,---,0.00,VWS V14.00,2013-06-20 14:29:00,
2013-06-20 10:33:00,77.1,58.7,30.13,WSW,258,0.0,0.0,53,0.00,,---,0.00,VWS V14.00,2013-06-20 14:33:00,
2013-06-20 10:34:00,77.3,58.8,30.13,WSW,258,0.0,0.0,53,0.00,,---,0.00,VWS V14.00,2013-06-20 14:34:00,
2013-06-20 10:35:00,77.3,58.8,30.13,WSW,258,0.0,0.0,53,0.00,,---,0.00,VWS V14.00,2013-06-20 14:35:00,
2013-06-20 10:39:00,77.3,58.3,30.13,WSW,258,0.0,0.0,52,0.00,,---,0.00,VWS V14.00,2013-06-20 14:39:00,
2013-06-20 10:41:00,77.3,58.8,30.13,West,259,0.0,0.0,53,0.00,,---,0.00,VWS V14.00,2013-06-20 14:41:00,
2013-06-20 10:43:00,77.4,58.4,30.13,West,259,0.0,0.0,52,0.00,,---,0.00,VWS V14.00,2013-06-20 14:43:00,
2013-06-20 10:45:00,77.6,58.6,30.13,West,260,0.0,0.0,52,0.00,,---,0.00,VWS V14.00,2013-06-20 14:45:00,
2013-06-20 10:46:00,77.6,58.6,30.13,West,260,0.0,0.0,52,0.00,,---,0.00,VWS V14.00,2013-06-20 14:46:00,
2013-06-20 10:48:00,77.9,58.9,30.13,West,265,0.0,0.0,52,0.00,,---,0.00,VWS V14.00,2013-06-20 14:48:00,
2013-06-20 10:49:00,78.0,59.0,30.13,West,265,0.0,0.0,52,0.00,,---,0.00,VWS V14.00,2013-06-20 14:49:00,
2013-06-20 10:51:00,78.7,59.1,30.13,West,265,0.0,0.0,51,0.00,,---,0.00,VWS V14.00,2013-06-20 14:51:00,
2013-06-20 10:52:00,78.7,59.1,30.13,West,265,0.0,0.0,51,0.00,,---,0.00,VWS V14.00,2013-06-20 14:52:00,
2013-06-20 10:55:00,78.8,58.6,30.13,West,265,0.0,0.0,50,0.00,,---,0.00,VWS V14.00,2013-06-20 14:55:00,
2013-06-20 10:57:00,78.8,58.6,30.13,West,264,0.0,0.0,50,0.00,,---,0.00,VWS V14.00,2013-06-20 14:57:00,
2013-06-20 10:58:00,78.7,58.5,30.14,West,264,0.0,0.0,50,0.00,,---,0.00,VWS V14.00,2013-06-20 14:58:00,
2013-06-20 10:59:00,78.7,58.5,30.14,West,265,0.0,0.0,50,0.00,,---,0.00,VWS V14.00,2013-06-20 14:59:00,
2013-06-20 11:02:00,79.0,58.8,30.14,West,265,0.0,0.0,50,0.00,,---,0.00,VWS V14.00,2013-06-20 15:02:00,
2013-06-20 11:03:00,79.1,58.9,30.14,West,265,0.0,0.0,50,0.00,,---,0.00,VWS V14.00,2013-06-20 15:03:00,
2013-06-20 11:04:00,79.1,58.3,30.14,West,265,0.0,0.0,49,0.00,,---,0.00,VWS V14.00,2013-06-20 15:04:00,
2013-06-20 11:07:00,79.0,58.2,30.14,West,265,0.0,0.0,49,0.00,,---,0.00,VWS V14.00,2013-06-20 15:07:00,
2013-06-20 11:08:00,79.2,58.4,30.14,West,265,0.0,0.0,49,0.00,,---,0.00,VWS V14.00,2013-06-20 15:08:00,
2013-06-20 11:09:00,79.3,57.9,30.14,West,265,0.0,0.0,48,0.00,,---,0.00,VWS V14.00,2013-06-20 15:09:00,
2013-06-20 11:11:00,79.5,58.1,30.14,West,265,0.0,5.0,48,0.00,,---,0.00,VWS V14.00,2013-06-20 15:11:00,
2013-06-20 11:14:00,79.7,57.7,30.14,WNW,289,1.0,9.0,47,0.00,,---,0.00,VWS V14.00,2013-06-20 15:14:00,
2013-06-20 11:17:00,79.7,57.1,30.14,WNW,293,3.0,9.0,46,0.00,,---,0.00,VWS V14.00,2013-06-20 15:17:00,
2013-06-20 11:19:00,79.7,57.7,30.14,WNW,290,5.0,9.0,47,0.00,,---,0.00,VWS V14.00,2013-06-20 15:19:00,
2013-06-20 11:21:00,79.8,57.8,30.14,WNW,289,3.0,9.0,47,0.00,,---,0.00,VWS V14.00,2013-06-20 15:21:00,
2013-06-20 11:22:00,79.8,57.8,30.14,WNW,289,0.0,9.0,47,0.00,,---,0.00,VWS V14.00,2013-06-20 15:22:00,
2013-06-20 11:24:00,79.9,57.9,30.14,WNW,289,0.0,9.0,47,0.00,,---,0.00,VWS V14.00,2013-06-20 15:24:00,
2013-06-20 11:25:00,80.0,57.4,30.14,WNW,291,1.0,9.0,46,0.00,,---,0.00,VWS V14.00,2013-06-20 15:25:00,
2013-06-20 11:26:00,79.9,57.3,30.14,WNW,291,0.0,9.0,46,0.00,,---,0.00,VWS V14.00,2013-06-20 15:26:00,
2013-06-20 11:28:00,79.9,57.3,30.14,WNW,291,1.0,9.0,46,0.00,,---,0.00,VWS V14.00,2013-06-20 15:28:00,
2013-06-20 11:29:00,80.1,57.5,30.14,WNW,292,0.0,0.0,46,0.00,,---,0.00,VWS V14.00,2013-06-20 15:29:00,
2013-06-20 11:30:00,80.1,57.5,30.14,WNW,292,0.0,0.0,46,0.00,,---,0.00,VWS V14.00,2013-06-20 15:30:00,
2013-06-20 11:31:00,80.3,58.2,30.14,WNW,292,0.0,1.0,47,0.00,,---,0.00,VWS V14.00,2013-06-20 15:31:00,
2013-06-20 11:34:00,80.7,58.6,30.14,WNW,292,0.0,1.0,47,0.00,,---,0.00,VWS V14.00,2013-06-20 15:34:00,
2013-06-20 11:36:00,80.9,58.2,30.14,WNW,293,0.0,1.0,46,0.00,,---,0.00,VWS V14.00,2013-06-20 15:36:00,
2013-06-20 11:37:00,80.8,57.5,30.14,NW,308,0.0,1.0,45,0.00,,---,0.00,VWS V14.00,2013-06-20 15:37:00,
2013-06-20 11:38:00,80.8,57.5,30.14,NW,307,0.0,1.0,45,0.00,,---,0.00,VWS V14.00,2013-06-20 15:38:00,
2013-06-20 11:39:00,80.6,57.9,30.14,NW,309,0.0,1.0,46,0.00,,---,0.00,VWS V14.00,2013-06-20 15:39:00,
2013-06-20 11:42:00,80.0,57.4,30.14,NW,320,0.0,1.0,46,0.00,,---,0.00,VWS V14.00,2013-06-20 15:42:00,
2013-06-20 11:44:00,80.0,57.4,30.14,NW,315,0.0,1.0,46,0.00,,---,0.00,VWS V14.00,2013-06-20 15:44:00,
2013-06-20 11:45:00,80.3,57.0,30.14,NW,314,0.0,1.0,45,0.00,,---,0.00,VWS V14.00,2013-06-20 15:45:00,
2013-06-20 11:48:00,80.5,57.2,30.14,NW,315,0.0,1.0,45,0.00,,---,0.00,VWS V14.00,2013-06-20 15:48:00,
2013-06-20 11:49:00,80.7,58.0,30.14,NW,315,0.0,1.0,46,0.00,,---,0.00,VWS V14.00,2013-06-20 15:49:00,
2013-06-20 11:50:00,81.1,57.8,30.14,NW,313,0.0,1.0,45,0.00,,---,0.00,VWS V14.00,2013-06-20 15:50:00,
2013-06-20 11:53:00,81.6,57.6,30.14,NW,311,0.0,1.0,44,0.00,,---,0.00,VWS V14.00,2013-06-20 15:53:00,
2013-06-20 11:54:00,81.8,57.8,30.14,NW,311,0.0,1.0,44,0.00,,---,0.00,VWS V14.00,2013-06-20 15:54:00,
2013-06-20 11:55:00,81.9,57.9,30.13,NW,311,0.0,1.0,44,0.00,,---,0.00,VWS V14.00,2013-06-20 15:55:00,
2013-06-20 11:57:00,81.9,57.2,30.13,NNE,12,0.0,1.0,43,0.00,,---,0.00,VWS V14.00,2013-06-20 15:57:00,
2013-06-20 12:00:00,80.4,55.9,30.14,NE,38,0.0,1.0,43,0.00,,---,0.00,VWS V14.00,2013-06-20 16:00:00,
2013-06-20 12:01:00,80.2,56.3,30.14,East,87,0.0,1.0,44,0.00,,---,0.00,VWS V14.00,2013-06-20 16:01:00,
2013-06-20 12:02:00,80.1,56.9,30.13,East,87,0.0,1.0,45,0.00,,---,0.00,VWS V14.00,2013-06-20 16:02:00,
2013-06-20 12:03:00,80.0,56.8,30.13,NE,38,0.0,1.0,45,0.00,,---,0.00,VWS V14.00,2013-06-20 16:03:00,
2013-06-20 12:04:00,80.0,56.8,30.14,NE,36,0.0,1.0,45,0.00,,---,0.00,VWS V14.00,2013-06-20 16:04:00,
2013-06-20 12:08:00,80.6,57.3,30.14,NNW,337,0.0,2.0,45,0.00,,---,0.00,VWS V14.00,2013-06-20 16:08:00,
2013-06-20 12:09:00,80.9,57.6,30.14,NW,308,0.0,2.0,45,0.00,,---,0.00,VWS V14.00,2013-06-20 16:09:00,
2013-06-20 12:10:00,81.1,57.2,30.14,NW,315,0.0,2.0,44,0.00,,---,0.00,VWS V14.00,2013-06-20 16:10:00,
2013-06-20 12:13:00,81.0,57.1,30.14,NW,315,0.0,2.0,44,0.00,,---,0.00,VWS V14.00,2013-06-20 16:13:00,
2013-06-20 12:14:00,81.1,57.2,30.14,NW,315,0.0,2.0,44,0.00,,---,0.00,VWS V14.00,2013-06-20 16:14:00,
2013-06-20 12:15:00,81.1,57.2,30.14,NW,316,0.0,2.0,44,0.00,,---,0.00,VWS V14.00,2013-06-20 16:15:00,
2013-06-20 12:16:00,81.2,56.6,30.14,NW,316,0.0,2.0,43,0.00,,---,0.00,VWS V14.00,2013-06-20 16:16:00,
2013-06-20 12:17:00,81.3,56.7,30.14,NW,319,0.0,2.0,43,0.00,,---,0.00,VWS V14.00,2013-06-20 16:17:00,
2013-06-20 12:20:00,81.0,56.4,30.14,NNW,331,0.0,2.0,43,0.00,,---,0.00,VWS V14.00,2013-06-20 16:20:00,
2013-06-20 12:21:00,80.9,56.3,30.14,NNW,332,0.0,2.0,43,0.00,,---,0.00,VWS V14.00,2013-06-20 16:21:00,
2013-06-20 12:23:00,80.4,56.5,30.14,North,355,0.0,2.0,44,0.00,,---,0.00,VWS V14.00,2013-06-20 16:23:00,
2013-06-20 12:25:00,80.5,56.6,30.14,North,350,0.0,2.0,44,0.00,,---,0.00,VWS V14.00,2013-06-20 16:25:00,
2013-06-20 12:26:00,80.5,56.6,30.14,North,350,0.0,2.0,44,0.00,,---,0.00,VWS V14.00,2013-06-20 16:26:00,
2013-06-20 12:28:00,80.6,56.7,30.13,North,350,0.0,2.0,44,0.00,,---,0.00,VWS V14.00,2013-06-20 16:28:00,
2013-06-20 12:30:00,80.9,57.0,30.13,NNW,336,0.0,1.0,44,0.00,,---,0.00,VWS V14.00,2013-06-20 16:30:00,
2013-06-20 12:31:00,80.9,57.0,30.13,NNW,336,0.0,1.0,44,0.00,,---,0.00,VWS V14.00,2013-06-20 16:31:00,
2013-06-20 12:32:00,81.2,57.2,30.13,NNW,336,0.0,1.0,44,0.00,,---,0.00,VWS V14.00,2013-06-20 16:32:00,
2013-06-20 12:33:00,81.4,57.4,30.13,NNW,336,0.0,1.0,44,0.00,,---,0.00,VWS V14.00,2013-06-20 16:33:00,
2013-06-20 12:37:00,82.7,57.3,30.13,WNW,287,0.0,1.0,42,0.00,,---,0.00,VWS V14.00,2013-06-20 16:37:00,
2013-06-20 12:38:00,83.0,57.6,30.13,WNW,287,0.0,1.0,42,0.00,,---,0.00,VWS V14.00,2013-06-20 16:38:00,
2013-06-20 12:39:00,83.2,57.8,30.13,WNW,287,0.0,1.0,42,0.00,,---,0.00,VWS V14.00,2013-06-20 16:39:00,
2013-06-20 12:40:00,83.3,57.8,30.13,WNW,287,0.0,1.0,42,0.00,,---,0.00,VWS V14.00,2013-06-20 16:40:00,
2013-06-20 12:43:00,83.7,58.2,30.13,WNW,295,1.0,2.0,42,0.00,,---,0.00,VWS V14.00,2013-06-20 16:43:00,
2013-06-20 12:44:00,83.9,57.7,30.13,WNW,283,1.0,2.0,41,0.00,,---,0.00,VWS V14.00,2013-06-20 16:44:00,
2013-06-20 12:45:00,83.9,57.0,30.13,West,277,2.0,3.0,40,0.00,,---,0.00,VWS V14.00,2013-06-20 16:45:00,
2013-06-20 12:46:00,83.6,57.4,30.13,West,265,0.0,3.0,41,0.00,,---,0.00,VWS V14.00,2013-06-20 16:46:00,
2013-06-20 12:48:00,83.4,57.3,30.14,West,266,0.0,3.0,41,0.00,,---,0.00,VWS V14.00,2013-06-20 16:48:00,
2013-06-20 12:49:00,83.3,57.2,30.14,West,271,0.0,3.0,41,0.00,,---,0.00,VWS V14.00,2013-06-20 16:49:00,
2013-06-20 12:50:00,83.2,57.1,30.14,West,271,0.0,3.0,41,0.00,,---,0.00,VWS V14.00,2013-06-20 16:50:00,
2013-06-20 12:51:00,83.1,57.0,30.14,West,276,0.0,3.0,41,0.00,,---,0.00,VWS V14.00,2013-06-20 16:51:00,
2013-06-20 12:53:00,82.9,56.8,30.14,NW,305,0.0,3.0,41,0.00,,---,0.00,VWS V14.00,2013-06-20 16:53:00,
2013-06-20 12:54:00,82.9,56.8,30.14,NW,314,0.0,3.0,41,0.00,,---,0.00,VWS V14.00,2013-06-20 16:54:00,
2013-06-20 12:55:00,82.7,56.6,30.14,NW,321,2.0,3.0,41,0.00,,---,0.00,VWS V14.00,2013-06-20 16:55:00,
2013-06-20 12:56:00,82.6,56.5,30.14,NW,325,1.0,3.0,41,0.00,,---,0.00,VWS V14.00,2013-06-20 16:56:00,
2013-06-20 12:57:00,82.6,56.5,30.14,NW,326,1.0,3.0,41,0.00,,---,0.00,VWS V14.00,2013-06-20 16:57:00,
2013-06-20 12:59:00,82.6,57.2,30.14,NNW,327,1.0,1.0,42,0.00,,---,0.00,VWS V14.00,2013-06-20 16:59:00,
2013-06-20 13:00:00,82.5,56.5,30.14,NNW,330,1.0,3.0,41,0.00,,---,0.00,VWS V14.00,2013-06-20 17:00:00,
2013-06-20 13:01:00,82.5,56.5,30.14,NNW,330,1.0,3.0,41,0.00,,---,0.00,VWS V14.00,2013-06-20 17:01:00,
2013-06-20 13:04:00,81.9,56.6,30.14,NNW,331,0.0,3.0,42,0.00,,---,0.00,VWS V14.00,2013-06-20 17:04:00,
2013-06-20 13:05:00,81.8,56.5,30.14,NNW,332,0.0,3.0,42,0.00,,---,0.00,VWS V14.00,2013-06-20 17:05:00,
2013-06-20 13:06:00,81.8,56.5,30.14,NNW,332,1.0,3.0,42,0.00,,---,0.00,VWS V14.00,2013-06-20 17:06:00,
2013-06-20 13:08:00,81.8,56.5,30.14,NNW,332,0.0,3.0,42,0.00,,---,0.00,VWS V14.00,2013-06-20 17:08:00,
2013-06-20 13:10:00,81.9,56.6,30.14,WNW,301,1.0,3.0,42,0.00,,---,0.00,VWS V14.00,2013-06-20 17:10:00,
2013-06-20 13:11:00,82.1,56.8,30.14,WNW,301,0.0,3.0,42,0.00,,---,0.00,VWS V14.00,2013-06-20 17:11:00,
2013-06-20 13:14:00,82.3,56.9,30.14,NW,311,0.0,3.0,42,0.00,,---,0.00,VWS V14.00,2013-06-20 17:14:00,
2013-06-20 13:15:00,82.6,57.2,30.14,NW,311,0.0,3.0,42,0.00,,---,0.00,VWS V14.00,2013-06-20 17:15:00,
2013-06-20 13:17:00,83.1,57.7,30.14,NW,311,1.0,3.0,42,0.00,,---,0.00,VWS V14.00,2013-06-20 17:17:00,
2013-06-20 13:19:00,83.3,57.2,30.14,NW,321,0.0,3.0,41,0.00,,---,0.00,VWS V14.00,2013-06-20 17:19:00,
2013-06-20 13:20:00,83.1,56.3,30.14,NNW,346,2.0,3.0,40,0.00,,---,0.00,VWS V14.00,2013-06-20 17:20:00,
2013-06-20 13:22:00,82.6,55.9,30.13,NNW,344,0.0,3.0,40,0.00,,---,0.00,VWS V14.00,2013-06-20 17:22:00,
2013-06-20 13:24:00,82.8,56.0,30.13,North,360,0.0,3.0,40,0.00,,---,0.00,VWS V14.00,2013-06-20 17:24:00,
2013-06-20 13:26:00,82.8,56.0,30.13,NNE,24,0.0,3.0,40,0.00,,---,0.00,VWS V14.00,2013-06-20 17:26:00,
2013-06-20 13:27:00,83.0,56.2,30.13,NNE,22,0.0,3.0,40,0.00,,---,0.00,VWS V14.00,2013-06-20 17:27:00,
2013-06-20 13:30:00,82.9,56.1,30.13,NNE,32,0.0,2.0,40,0.00,,---,0.00,VWS V14.00,2013-06-20 17:30:00,
2013-06-20 13:31:00,82.8,56.0,30.13,North,5,3.0,5.0,40,0.00,,---,0.00,VWS V14.00,2013-06-20 17:31:00,
2013-06-20 13:33:00,82.8,56.0,30.13,North,349,2.0,5.0,40,0.00,,---,0.00,VWS V14.00,2013-06-20 17:33:00,
2013-06-20 13:34:00,82.9,56.1,30.14,WNW,291,6.0,6.0,40,0.00,,---,0.00,VWS V14.00,2013-06-20 17:34:00,
2013-06-20 13:37:00,83.4,56.6,30.13,NNW,330,4.0,6.0,40,0.00,,---,0.00,VWS V14.00,2013-06-20 17:37:00,
2013-06-20 13:40:00,83.1,56.3,30.13,North,5,7.0,7.0,40,0.00,,---,0.00,VWS V14.00,2013-06-20 17:40:00,
2013-06-20 13:41:00,82.9,56.1,30.13,North,355,3.0,7.0,40,0.00,,---,0.00,VWS V14.00,2013-06-20 17:41:00,
2013-06-20 13:42:00,82.9,56.1,30.13,NNW,342,5.0,7.0,40,0.00,,---,0.00,VWS V14.00,2013-06-20 17:42:00,
2013-06-20 13:43:00,82.9,56.1,30.13,North,350,4.0,7.0,40,0.00,,---,0.00,VWS V14.00,2013-06-20 17:43:00,
2013-06-20 13:45:00,82.6,55.9,30.14,North,360,3.0,7.0,40,0.00,,---,0.00,VWS V14.00,2013-06-20 17:45:00,
2013-06-20 13:46:00,82.6,55.9,30.14,North,5,0.0,7.0,40,0.00,,---,0.00,VWS V14.00,2013-06-20 17:46:00,
2013-06-20 13:47:00,82.6,56.5,30.14,North,360,2.0,7.0,41,0.00,,---,0.00,VWS V14.00,2013-06-20 17:47:00,
2013-06-20 13:50:00,82.1,56.1,30.13,NNE,14,3.0,7.0,41,0.00,,---,0.00,VWS V14.00,2013-06-20 17:50:00,
2013-06-20 13:51:00,82.3,56.3,30.13,NNW,342,1.0,7.0,41,0.00,,---,0.00,VWS V14.00,2013-06-20 17:51:00,
2013-06-20 13:53:00,82.5,56.5,30.13,NNW,348,0.0,7.0,41,0.00,,---,0.00,VWS V14.00,2013-06-20 17:53:00,
2013-06-20 13:54:00,82.8,56.0,30.13,NNW,348,0.0,7.0,40,0.00,,---,0.00,VWS V14.00,2013-06-20 17:54:00,
2013-06-20 13:55:00,82.9,56.1,30.13,NNW,348,0.0,7.0,40,0.00,,---,0.00,VWS V14.00,2013-06-20 17:55:00,
2013-06-20 13:56:00,83.2,56.4,30.13,NNW,348,0.0,7.0,40,0.00,,---,0.00,VWS V14.00,2013-06-20 17:56:00,
2013-06-20 13:58:00,83.5,56.7,30.13,North,360,2.0,7.0,40,0.00,,---,0.00,VWS V14.00,2013-06-20 17:58:00,
2013-06-20 14:00:00,83.6,57.4,30.13,North,5,0.0,3.0,41,0.00,,---,0.00,VWS V14.00,2013-06-20 18:00:00,
2013-06-20 14:03:00,84.0,56.4,30.13,NE,48,0.0,3.0,39,0.00,,---,0.00,VWS V14.00,2013-06-20 18:03:00,
2013-06-20 14:04:00,84.0,56.4,30.13,NE,49,0.0,3.0,39,0.00,,---,0.00,VWS V14.00,2013-06-20 18:04:00,
2013-06-20 14:06:00,83.5,56.7,30.13,NE,49,0.0,3.0,40,0.00,,---,0.00,VWS V14.00,2013-06-20 18:06:00,
2013-06-20 14:07:00,83.2,56.4,30.13,NNE,28,0.0,3.0,40,0.00,,---,0.00,VWS V14.00,2013-06-20 18:07:00,
2013-06-20 14:09:00,83.0,56.9,30.13,NNE,24,0.0,5.0,41,0.00,,---,0.00,VWS V14.00,2013-06-20 18:09:00,
2013-06-20 14:12:00,83.0,56.9,30.13,NNW,335,2.0,5.0,41,0.00,,---,0.00,VWS V14.00,2013-06-20 18:12:00,
2013-06-20 14:13:00,83.1,57.0,30.13,NNW,348,4.0,5.0,41,0.00,,---,0.00,VWS V14.00,2013-06-20 18:13:00,
2013-06-20 14:14:00,83.1,57.0,30.13,NNW,333,2.0,5.0,41,0.00,,---,0.00,VWS V14.00,2013-06-20 18:14:00,
2013-06-20 14:15:00,83.2,57.1,30.13,NNW,344,2.0,5.0,41,0.00,,---,0.00,VWS V14.00,2013-06-20 18:15:00,
2013-06-20 14:17:00,83.4,57.3,30.13,NNW,346,2.0,5.0,41,0.00,,---,0.00,VWS V14.00,2013-06-20 18:17:00,
2013-06-20 14:18:00,83.5,57.3,30.13,NW,306,2.0,5.0,41,0.00,,---,0.00,VWS V14.00,2013-06-20 18:18:00,
2013-06-20 14:19:00,83.7,57.5,30.13,North,11,6.0,6.0,41,0.00,,---,0.00,VWS V14.00,2013-06-20 18:19:00,
2013-06-20 14:21:00,83.8,57.6,30.13,NW,317,1.0,8.0,41,0.00,,---,0.00,VWS V14.00,2013-06-20 18:21:00,
2013-06-20 14:23:00,83.8,56.9,30.13,North,360,1.0,8.0,40,0.00,,---,0.00,VWS V14.00,2013-06-20 18:23:00,
2013-06-20 14:26:00,83.2,57.1,30.13,WNW,295,6.0,9.0,41,0.00,,---,0.00,VWS V14.00,2013-06-20 18:26:00,
2013-06-20 14:28:00,83.2,57.1,30.13,NNW,346,5.0,10.0,41,0.00,,---,0.00,VWS V14.00,2013-06-20 18:28:00,
2013-06-20 14:30:00,83.2,57.1,30.13,NNW,346,5.0,9.0,41,0.00,,---,0.00,VWS V14.00,2013-06-20 18:30:00,
2013-06-20 14:31:00,83.2,57.1,30.13,NNW,330,1.0,9.0,41,0.00,,---,0.00,VWS V14.00,2013-06-20 18:31:00,
2013-06-20 14:33:00,83.3,57.2,30.13,NW,325,3.0,9.0,41,0.00,,---,0.00,VWS V14.00,2013-06-20 18:33:00,
2013-06-20 14:34:00,83.3,57.2,30.13,NNW,341,3.0,9.0,41,0.00,,---,0.00,VWS V14.00,2013-06-20 18:34:00,
2013-06-20 14:36:00,83.1,57.0,30.13,NNW,341,0.0,9.0,41,0.00,,---,0.00,VWS V14.00,2013-06-20 18:36:00,
2013-06-20 14:37:00,83.2,57.1,30.13,NNW,342,0.0,9.0,41,0.00,,---,0.00,VWS V14.00,2013-06-20 18:37:00,
2013-06-20 14:38:00,83.4,57.3,30.13,NNW,341,3.0,9.0,41,0.00,,---,0.00,VWS V14.00,2013-06-20 18:38:00,
2013-06-20 14:39:00,83.5,57.3,30.13,NNW,338,3.0,9.0,41,0.00,,---,0.00,VWS V14.00,2013-06-20 18:39:00,
2013-06-20 14:42:00,84.0,57.1,30.13,NW,307,0.0,9.0,40,0.00,,---,0.00,VWS V14.00,2013-06-20 18:42:00,
2013-06-20 14:43:00,84.3,57.4,30.13,NW,307,3.0,9.0,40,0.00,,---,0.00,VWS V14.00,2013-06-20 18:43:00,
2013-06-20 14:46:00,85.2,58.2,30.12,West,273,2.0,9.0,40,0.00,,---,0.00,VWS V14.00,2013-06-20 18:46:00,
2013-06-20 14:47:00,85.4,57.7,30.12,West,276,3.0,9.0,39,0.00,,---,0.00,VWS V14.00,2013-06-20 18:47:00,
2013-06-20 14:48:00,85.5,57.7,30.12,West,279,2.0,9.0,39,0.00,,---,0.00,VWS V14.00,2013-06-20 18:48:00,
2013-06-20 14:49:00,85.6,58.5,30.12,West,281,0.0,9.0,40,0.00,,---,0.00,VWS V14.00,2013-06-20 18:49:00,
2013-06-20 14:52:00,85.8,58.0,30.12,WNW,289,2.0,9.0,39,0.00,,---,0.00,VWS V14.00,2013-06-20 18:52:00,
2013-06-20 14:53:00,85.8,58.0,30.12,WNW,288,0.0,9.0,39,0.00,,---,0.00,VWS V14.00,2013-06-20 18:53:00,
2013-06-20 14:54:00,85.9,58.1,30.12,WNW,288,0.0,9.0,39,0.00,,---,0.00,VWS V14.00,2013-06-20 18:54:00,
2013-06-20 14:58:00,85.2,57.5,30.12,North,360,4.0,9.0,39,0.00,,---,0.00,VWS V14.00,2013-06-20 18:58:00,
2013-06-20 14:59:00,84.8,57.1,30.12,North,350,3.0,5.0,39,0.00,,---,0.00,VWS V14.00,2013-06-20 18:59:00,
2013-06-20 15:01:00,84.6,56.9,30.12,North,5,2.0,6.0,39,0.00,,---,0.00,VWS V14.00,2013-06-20 19:01:00,
2013-06-20 15:03:00,84.1,57.2,30.12,NNE,17,0.0,6.0,40,0.00,,---,0.00,VWS V14.00,2013-06-20 19:03:00,
2013-06-20 15:04:00,84.1,57.2,30.12,NNE,17,1.0,6.0,40,0.00,,---,0.00,VWS V14.00,2013-06-20 19:04:00,
2013-06-20 15:05:00,84.0,57.1,30.12,North,11,1.0,6.0,40,0.00,,---,0.00,VWS V14.00,2013-06-20 19:05:00,
2013-06-20 15:06:00,84.1,57.2,30.11,North,11,0.0,6.0,40,0.00,,---,0.00,VWS V14.00,2013-06-20 19:06:00,
2013-06-20 15:07:00,84.1,57.2,30.11,North,11,1.0,6.0,40,0.00,,---,0.00,VWS V14.00,2013-06-20 19:07:00,
2013-06-20 15:08:00,84.5,57.5,30.11,North,11,2.0,6.0,40,0.00,,---,0.00,VWS V14.00,2013-06-20 19:08:00,
2013-06-20 15:09:00,84.7,57.7,30.11,NNE,14,3.0,6.0,40,0.00,,---,0.00,VWS V14.00,2013-06-20 19:09:00,
2013-06-20 15:11:00,84.9,57.9,30.11,NNE,21,0.0,6.0,40,0.00,,---,0.00,VWS V14.00,2013-06-20 19:11:00,
2013-06-20 15:12:00,85.0,58.0,30.11,NNE,26,3.0,6.0,40,0.00,,---,0.00,VWS V14.00,2013-06-20 19:12:00,
2013-06-20 15:13:00,85.1,58.1,30.11,NNE,28,2.0,6.0,40,0.00,,---,0.00,VWS V14.00,2013-06-20 19:13:00,
2013-06-20 15:14:00,85.2,58.2,30.11,NE,34,0.0,6.0,40,0.00,,---,0.00,VWS V14.00,2013-06-20 19:14:00,
2013-06-20 15:15:00,85.2,58.2,30.11,NE,34,0.0,6.0,40,0.00,,---,0.00,VWS V14.00,2013-06-20 19:15:00,
2013-06-20 15:16:00,85.5,57.7,30.11,NNW,336,3.0,6.0,39,0.00,,---,0.00,VWS V14.00,2013-06-20 19:16:00,
2013-06-20 15:18:00,85.7,57.9,30.11,NW,326,1.0,6.0,39,0.00,,---,0.00,VWS V14.00,2013-06-20 19:18:00,
2013-06-20 15:19:00,85.8,58.0,30.11,NW,315,1.0,6.0,39,0.00,,---,0.00,VWS V14.00,2013-06-20 19:19:00,
2013-06-20 15:20:00,85.9,58.1,30.11,WSW,252,7.0,7.0,39,0.00,,---,0.00,VWS V14.00,2013-06-20 19:20:00,
2013-06-20 15:21:00,85.9,58.1,30.11,East,92,4.0,10.0,39,0.00,,---,0.00,VWS V14.00,2013-06-20 19:21:00,
2013-06-20 15:22:00,85.9,58.1,30.11,ESE,103,2.0,10.0,39,0.00,,---,0.00,VWS V14.00,2013-06-20 19:22:00,
2013-06-20 15:25:00,85.0,58.0,30.12,North,360,1.0,10.0,40,0.00,,---,0.00,VWS V14.00,2013-06-20 19:25:00,
2013-06-20 15:26:00,84.9,57.2,30.12,North,360,1.0,10.0,39,0.00,,---,0.00,VWS V14.00,2013-06-20 19:26:00,
2013-06-20 15:29:00,84.7,57.7,30.11,North,5,5.0,5.0,40,0.00,,---,0.00,VWS V14.00,2013-06-20 19:29:00,
2013-06-20 15:30:00,84.7,57.7,30.11,North,5,4.0,5.0,40,0.00,,---,0.00,VWS V14.00,2013-06-20 19:30:00,
2013-06-20 15:31:00,84.6,57.6,30.11,North,5,2.0,5.0,40,0.00,,---,0.00,VWS V14.00,2013-06-20 19:31:00,
2013-06-20 15:32:00,84.5,57.5,30.11,North,5,1.0,5.0,40,0.00,,---,0.00,VWS V14.00,2013-06-20 19:32:00,
2013-06-20 15:35:00,84.1,57.2,30.11,ESE,105,3.0,5.0,40,0.00,,---,0.00,VWS V14.00,2013-06-20 19:35:00,
2013-06-20 15:36:00,83.9,57.0,30.11,ESE,112,2.0,5.0,40,0.00,,---,0.00,VWS V14.00,2013-06-20 19:36:00,
2013-06-20 15:37:00,83.8,56.9,30.11,ESE,111,0.0,5.0,40,0.00,,---,0.00,VWS V14.00,2013-06-20 19:37:00,
2013-06-20 15:41:00,84.1,57.2,30.11,East,94,2.0,5.0,40,0.00,,---,0.00,VWS V14.00,2013-06-20 19:41:00,
2013-06-20 15:42:00,84.1,57.2,30.11,East,94,1.0,5.0,40,0.00,,---,0.00,VWS V14.00,2013-06-20 19:42:00,
2013-06-20 15:43:00,84.2,57.3,30.11,ENE,61,4.0,5.0,40,0.00,,---,0.00,VWS V14.00,2013-06-20 19:43:00,
2013-06-20 15:46:00,84.0,57.1,30.11,NNE,32,1.0,5.0,40,0.00,,---,0.00,VWS V14.00,2013-06-20 19:46:00,
2013-06-20 15:47:00,84.2,57.3,30.11,NNE,30,0.0,5.0,40,0.00,,---,0.00,VWS V14.00,2013-06-20 19:47:00,
2013-06-20 15:49:00,84.3,57.4,30.11,NNW,336,2.0,5.0,40,0.00,,---,0.00,VWS V14.00,2013-06-20 19:49:00,
2013-06-20 15:50:00,84.4,57.5,30.11,NNW,327,1.0,5.0,40,0.00,,---,0.00,VWS V14.00,2013-06-20 19:50:00,
2013-06-20 15:52:00,84.8,58.5,30.11,NNW,342,2.0,8.0,41,0.00,,---,0.00,VWS V14.00,2013-06-20 19:52:00,
2013-06-20 15:53:00,84.8,57.8,30.11,NNW,338,3.0,8.0,40,0.00,,---,0.00,VWS V14.00,2013-06-20 19:53:00,
2013-06-20 15:54:00,84.9,57.9,30.11,NW,326,3.0,8.0,40,0.00,,---,0.00,VWS V14.00,2013-06-20 19:54:00,
2013-06-20 15:56:00,85.0,58.0,30.11,WNW,303,3.0,8.0,40,0.00,,---,0.00,VWS V14.00,2013-06-20 19:56:00,
2013-06-20 15:57:00,85.0,58.0,30.11,NW,311,6.0,8.0,40,0.00,,---,0.00,VWS V14.00,2013-06-20 19:57:00,
2013-06-20 15:58:00,85.1,58.1,30.11,NW,311,0.0,8.0,40,0.00,,---,0.00,VWS V14.00,2013-06-20 19:58:00,
2013-06-20 16:01:00,85.4,57.7,30.11,SSW,200,3.0,4.0,39,0.00,,---,0.00,VWS V14.00,2013-06-20 20:01:00,
2013-06-20 16:03:00,85.2,58.2,30.10,SSW,199,0.0,4.0,40,0.00,,---,0.00,VWS V14.00,2013-06-20 20:03:00,
2013-06-20 16:04:00,85.3,58.3,30.10,SSW,199,0.0,4.0,40,0.00,,---,0.00,VWS V14.00,2013-06-20 20:04:00,
2013-06-20 16:05:00,85.4,58.4,30.10,SW,221,4.0,5.0,40,0.00,,---,0.00,VWS V14.00,2013-06-20 20:05:00,
2013-06-20 16:06:00,85.8,58.7,30.10,WSW,253,0.0,6.0,40,0.00,,---,0.00,VWS V14.00,2013-06-20 20:06:00,
2013-06-20 16:09:00,86.7,58.1,30.10,West,263,0.0,7.0,38,0.00,,---,0.00,VWS V14.00,2013-06-20 20:09:00,
2013-06-20 16:11:00,86.9,58.3,30.10,West,263,1.0,7.0,38,0.00,,---,0.00,VWS V14.00,2013-06-20 20:11:00,
2013-06-20 16:12:00,87.0,58.3,30.10,West,263,0.0,7.0,38,0.00,,---,0.00,VWS V14.00,2013-06-20 20:12:00,
2013-06-20 16:16:00,87.1,58.4,30.10,WNW,286,1.0,7.0,38,0.00,,---,0.00,VWS V14.00,2013-06-20 20:16:00,
2013-06-20 16:17:00,87.3,58.6,30.10,WNW,286,0.0,7.0,38,0.00,,---,0.00,VWS V14.00,2013-06-20 20:17:00,
2013-06-20 16:18:00,87.3,58.6,30.10,WNW,284,2.0,7.0,38,0.00,,---,0.00,VWS V14.00,2013-06-20 20:18:00,
2013-06-20 16:20:00,87.8,58.3,30.10,WNW,284,6.0,7.0,37,0.00,,---,0.00,VWS V14.00,2013-06-20 20:20:00,
2013-06-20 16:21:00,88.0,58.5,30.10,WNW,284,0.0,7.0,37,0.00,,---,0.00,VWS V14.00,2013-06-20 20:21:00,
2013-06-20 16:22:00,88.2,58.7,30.10,WNW,284,0.0,7.0,37,0.00,,---,0.00,VWS V14.00,2013-06-20 20:22:00,
2013-06-20 16:23:00,88.2,58.7,30.10,WNW,283,0.0,7.0,37,0.00,,---,0.00,VWS V14.00,2013-06-20 20:23:00,
2013-06-20 16:24:00,88.3,58.8,30.10,WNW,283,2.0,7.0,37,0.00,,---,0.00,VWS V14.00,2013-06-20 20:24:00,
2013-06-20 16:25:00,88.1,58.6,30.10,South,179,3.0,7.0,37,0.00,,---,0.00,VWS V14.00,2013-06-20 20:25:00,
2013-06-20 16:26:00,87.7,58.2,30.10,SSE,155,2.0,7.0,37,0.00,,---,0.00,VWS V14.00,2013-06-20 20:26:00,
2013-06-20 16:28:00,87.4,58.0,30.10,SSE,159,1.0,7.0,37,0.00,,---,0.00,VWS V14.00,2013-06-20 20:28:00,
2013-06-20 16:29:00,87.4,58.0,30.10,SSE,161,1.0,5.0,37,0.00,,---,0.00,VWS V14.00,2013-06-20 20:29:00,
2013-06-20 16:30:00,87.3,57.9,30.10,SSE,165,3.0,5.0,37,0.00,,---,0.00,VWS V14.00,2013-06-20 20:30:00,
2013-06-20 16:31:00,87.2,57.8,30.10,South,173,0.0,5.0,37,0.00,,---,0.00,VWS V14.00,2013-06-20 20:31:00,
2013-06-20 16:34:00,87.1,58.4,30.10,South,171,10.0,10.0,38,0.00,,---,0.00,VWS V14.00,2013-06-20 20:34:00,
2013-06-20 16:35:00,86.8,58.9,30.10,South,173,6.0,10.0,39,0.00,,---,0.00,VWS V14.00,2013-06-20 20:35:00,
2013-06-20 16:36:00,86.3,57.7,30.10,SE,136,5.0,10.0,38,0.00,,---,0.00,VWS V14.00,2013-06-20 20:36:00,
2013-06-20 16:37:00,86.0,57.5,30.10,SE,132,4.0,10.0,38,0.00,,---,0.00,VWS V14.00,2013-06-20 20:37:00,
2013-06-20 16:40:00,85.9,58.1,30.10,South,184,2.0,10.0,39,0.00,,---,0.00,VWS V14.00,2013-06-20 20:40:00,
2013-06-20 16:41:00,85.8,58.0,30.10,South,184,2.0,10.0,39,0.00,,---,0.00,VWS V14.00,2013-06-20 20:41:00,
2013-06-20 16:43:00,85.7,57.9,30.09,West,264,3.0,10.0,39,0.00,,---,0.00,VWS V14.00,2013-06-20 20:43:00,
2013-06-20 16:45:00,86.1,57.5,30.09,West,265,1.0,10.0,38,0.00,,---,0.00,VWS V14.00,2013-06-20 20:45:00,
2013-06-20 16:47:00,86.3,57.7,30.09,SSE,167,4.0,10.0,38,0.00,,---,0.00,VWS V14.00,2013-06-20 20:47:00,
2013-06-20 16:48:00,86.3,57.7,30.09,SSE,160,3.0,10.0,38,0.00,,---,0.00,VWS V14.00,2013-06-20 20:48:00,
2013-06-20 16:52:00,86.2,57.6,30.09,SW,216,3.0,10.0,38,0.00,,---,0.00,VWS V14.00,2013-06-20 20:52:00,
2013-06-20 16:53:00,86.3,57.7,30.09,SW,216,1.0,10.0,38,0.00,,---,0.00,VWS V14.00,2013-06-20 20:53:00,
2013-06-20 16:54:00,86.6,58.0,30.09,WSW,237,1.0,10.0,38,0.00,,---,0.00,VWS V14.00,2013-06-20 20:54:00,
2013-06-20 16:55:00,86.8,58.2,30.09,West,262,4.0,10.0,38,0.00,,---,0.00,VWS V14.00,2013-06-20 20:55:00,
2013-06-20 16:57:00,87.2,57.8,30.09,West,263,2.0,10.0,37,0.00,,---,0.00,VWS V14.00,2013-06-20 20:57:00,
2013-06-20 16:58:00,87.3,57.9,30.09,West,263,2.0,10.0,37,0.00,,---,0.00,VWS V14.00,2013-06-20 20:58:00,
2013-06-20 17:01:00,87.4,58.0,30.09,West,264,1.0,4.0,37,0.00,,---,0.00,VWS V14.00,2013-06-20 21:01:00,
2013-06-20 17:02:00,87.3,57.9,30.09,WNW,292,0.0,5.0,37,0.00,,---,0.00,VWS V14.00,2013-06-20 21:02:00,
2013-06-20 17:04:00,86.9,58.3,30.09,WNW,292,2.0,5.0,38,0.00,,---,0.00,VWS V14.00,2013-06-20 21:04:00,
2013-06-20 17:05:00,86.9,58.3,30.09,WNW,292,3.0,5.0,38,0.00,,---,0.00,VWS V14.00,2013-06-20 21:05:00,
2013-06-20 17:07:00,86.5,57.9,30.09,NNW,329,2.0,5.0,38,0.00,,---,0.00,VWS V14.00,2013-06-20 21:07:00,
2013-06-20 17:10:00,86.2,57.6,30.09,NW,305,5.0,5.0,38,0.00,,---,0.00,VWS V14.00,2013-06-20 21:10:00,
2013-06-20 17:12:00,86.3,58.5,30.09,SW,233,3.0,7.0,39,0.00,,---,0.00,VWS V14.00,2013-06-20 21:12:00,
2013-06-20 17:13:00,86.3,58.5,30.09,West,265,2.0,7.0,39,0.00,,---,0.00,VWS V14.00,2013-06-20 21:13:00,
2013-06-20 17:15:00,86.6,58.7,30.09,West,267,6.0,7.0,39,0.00,,---,0.00,VWS V14.00,2013-06-20 21:15:00,
2013-06-20 17:16:00,86.8,58.9,30.09,West,267,2.0,7.0,39,0.00,,---,0.00,VWS V14.00,2013-06-20 21:16:00,
2013-06-20 17:18:00,87.1,58.4,30.09,West,267,2.0,7.0,38,0.00,,---,0.00,VWS V14.00,2013-06-20 21:18:00,
2013-06-20 17:20:00,87.1,58.4,30.09,West,274,9.0,10.0,38,0.00,,---,0.00,VWS V14.00,2013-06-20 21:20:00,
2013-06-20 17:21:00,87.3,58.6,30.09,West,278,4.0,10.0,38,0.00,,---,0.00,VWS V14.00,2013-06-20 21:21:00,
2013-06-20 17:22:00,87.3,57.9,30.09,WNW,284,1.0,10.0,37,0.00,,---,0.00,VWS V14.00,2013-06-20 21:22:00,
2013-06-20 17:24:00,86.8,57.4,30.09,NNW,342,2.0,10.0,37,0.00,,---,0.00,VWS V14.00,2013-06-20 21:24:00,
2013-06-20 17:25:00,86.8,57.4,30.09,NNW,343,1.0,10.0,37,0.00,,---,0.00,VWS V14.00,2013-06-20 21:25:00,
2013-06-20 17:26:00,86.7,58.1,30.09,NNW,342,1.0,10.0,38,0.00,,---,0.00,VWS V14.00,2013-06-20 21:26:00,
2013-06-20 17:27:00,86.7,58.1,30.09,NNW,342,2.0,10.0,38,0.00,,---,0.00,VWS V14.00,2013-06-20 21:27:00,
2013-06-20 17:28:00,86.7,58.1,30.09,NNW,346,3.0,10.0,38,0.00,,---,0.00,VWS V14.00,2013-06-20 21:28:00,
2013-06-20 17:31:00,86.4,57.8,30.09,NNW,346,2.0,3.0,38,0.00,,---,0.00,VWS V14.00,2013-06-20 21:31:00,
2013-06-20 17:32:00,86.4,58.5,30.08,NE,42,4.0,5.0,39,0.00,,---,0.00,VWS V14.00,2013-06-20 21:32:00,
2013-06-20 17:33:00,86.3,58.5,30.08,NE,51,2.0,5.0,39,0.00,,---,0.00,VWS V14.00,2013-06-20 21:33:00,
2013-06-20 17:37:00,85.6,59.2,30.08,ENE,58,2.0,5.0,41,0.00,,---,0.00,VWS V14.00,2013-06-20 21:37:00,
2013-06-20 17:38:00,85.4,59.0,30.08,ENE,58,2.0,5.0,41,0.00,,---,0.00,VWS V14.00,2013-06-20 21:38:00,
2013-06-20 17:39:00,85.3,59.0,30.08,ENE,58,1.0,5.0,41,0.00,,---,0.00,VWS V14.00,2013-06-20 21:39:00,
2013-06-20 17:40:00,85.3,59.6,30.08,ESE,103,3.0,5.0,42,0.00,,---,0.00,VWS V14.00,2013-06-20 21:40:00,
2013-06-20 17:41:00,85.5,59.1,30.08,SSW,192,0.0,10.0,41,0.00,,---,0.00,VWS V14.00,2013-06-20 21:41:00,
2013-06-20 17:43:00,85.7,59.3,30.08,SSE,154,3.0,10.0,41,0.00,,---,0.00,VWS V14.00,2013-06-20 21:43:00,
2013-06-20 17:44:00,85.7,59.3,30.08,South,176,0.0,10.0,41,0.00,,---,0.00,VWS V14.00,2013-06-20 21:44:00,
2013-06-20 17:45:00,85.7,60.0,30.08,South,175,0.0,10.0,42,0.00,,---,0.00,VWS V14.00,2013-06-20 21:45:00,
2013-06-20 17:47:00,85.9,59.5,30.08,SSE,164,0.0,10.0,41,0.00,,---,0.00,VWS V14.00,2013-06-20 21:47:00,
2013-06-20 17:48:00,85.9,58.8,30.08,SE,144,3.0,10.0,40,0.00,,---,0.00,VWS V14.00,2013-06-20 21:48:00,
2013-06-20 17:50:00,85.9,59.5,30.08,South,178,3.0,10.0,41,0.00,,---,0.00,VWS V14.00,2013-06-20 21:50:00,
2013-06-20 17:52:00,85.7,58.6,30.08,ESE,123,5.0,10.0,40,0.00,,---,0.00,VWS V14.00,2013-06-20 21:52:00,
2013-06-20 17:53:00,85.6,59.2,30.08,SE,144,6.0,10.0,41,0.00,,---,0.00,VWS V14.00,2013-06-20 21:53:00,
2013-06-20 17:54:00,85.6,59.2,30.08,South,180,3.0,10.0,41,0.00,,---,0.00,VWS V14.00,2013-06-20 21:54:00,
2013-06-20 17:56:00,85.4,59.7,30.08,South,173,3.0,10.0,42,0.00,,---,0.00,VWS V14.00,2013-06-20 21:56:00,
2013-06-20 17:58:00,85.1,59.5,30.08,SSE,158,0.0,10.0,42,0.00,,---,0.00,VWS V14.00,2013-06-20 21:58:00,
2013-06-20 17:59:00,85.0,58.7,30.08,SE,136,0.0,0.0,41,0.00,,---,0.00,VWS V14.00,2013-06-20 21:59:00,
2013-06-20 18:01:00,84.7,58.4,30.08,SE,128,0.0,0.0,41,0.00,,---,0.00,VWS V14.00,2013-06-20 22:01:00,
2013-06-20 18:02:00,84.5,58.2,30.08,SE,128,0.0,0.0,41,0.00,,---,0.00,VWS V14.00,2013-06-20 22:02:00,
2013-06-20 18:03:00,84.4,58.2,30.08,South,170,0.0,0.0,41,0.00,,---,0.00,VWS V14.00,2013-06-20 22:03:00,
2013-06-20 18:04:00,84.6,58.3,30.08,South,175,0.0,0.0,41,0.00,,---,0.00,VWS V14.00,2013-06-20 22:04:00,
2013-06-20 18:07:00,85.1,58.8,30.08,SSE,160,0.0,1.0,41,0.00,,---,0.00,VWS V14.00,2013-06-20 22:07:00,
2013-06-20 18:08:00,85.1,58.8,30.08,SSE,161,0.0,1.0,41,0.00,,---,0.00,VWS V14.00,2013-06-20 22:08:00,
2013-06-20 18:09:00,85.2,58.9,30.08,SSE,160,0.0,1.0,41,0.00,,---,0.00,VWS V14.00,2013-06-20 22:09:00,
2013-06-20 18:10:00,85.2,58.9,30.08,SSE,161,0.0,1.0,41,0.00,,---,0.00,VWS V14.00,2013-06-20 22:10:00,
2013-06-20 18:13:00,85.7,59.3,30.07,SSE,162,0.0,1.0,41,0.00,,---,0.00,VWS V14.00,2013-06-20 22:13:00,
2013-06-20 18:14:00,85.8,59.4,30.08,South,178,6.0,7.0,41,0.00,,---,0.00,VWS V14.00,2013-06-20 22:14:00,
2013-06-20 18:15:00,86.1,59.0,30.08,SE,146,2.0,8.0,40,0.00,,---,0.00,VWS V14.00,2013-06-20 22:15:00,
2013-06-20 18:17:00,86.2,60.4,30.07,SSE,156,5.0,8.0,42,0.00,,---,0.00,VWS V14.00,2013-06-20 22:17:00,
2013-06-20 18:19:00,86.0,60.3,30.07,South,177,0.0,8.0,42,0.00,,---,0.00,VWS V14.00,2013-06-20 22:19:00,
2013-06-20 18:20:00,85.9,60.2,30.07,SSE,153,3.0,8.0,42,0.00,,---,0.00,VWS V14.00,2013-06-20 22:20:00,
2013-06-20 18:21:00,85.8,59.4,30.08,SSE,165,5.0,8.0,41,0.00,,---,0.00,VWS V14.00,2013-06-20 22:21:00,
2013-06-20 18:23:00,85.5,59.8,30.08,SSE,157,0.0,8.0,42,0.00,,---,0.00,VWS V14.00,2013-06-20 22:23:00,
2013-06-20 18:24:00,85.5,59.1,30.08,SSE,148,0.0,8.0,41,0.00,,---,0.00,VWS V14.00,2013-06-20 22:24:00,
2013-06-20 18:26:00,85.4,59.0,30.08,SE,146,4.0,8.0,41,0.00,,---,0.00,VWS V14.00,2013-06-20 22:26:00,
2013-06-20 18:29:00,85.3,59.0,30.07,SE,145,0.0,6.0,41,0.00,,---,0.00,VWS V14.00,2013-06-20 22:29:00,
2013-06-20 18:30:00,85.2,58.9,30.07,SE,145,0.0,6.0,41,0.00,,---,0.00,VWS V14.00,2013-06-20 22:30:00,
2013-06-20 18:32:00,85.1,60.8,30.08,South,175,6.0,7.0,44,0.00,,---,0.00,VWS V14.00,2013-06-20 22:32:00,
2013-06-20 18:34:00,85.1,59.5,30.08,West,259,1.0,7.0,42,0.00,,---,0.00,VWS V14.00,2013-06-20 22:34:00,
2013-06-20 18:35:00,85.2,58.9,30.08,West,259,4.0,7.0,41,0.00,,---,0.00,VWS V14.00,2013-06-20 22:35:00,
2013-06-20 18:36:00,85.2,58.9,30.08,West,264,5.0,7.0,41,0.00,,---,0.00,VWS V14.00,2013-06-20 22:36:00,
2013-06-20 18:37:00,85.4,59.0,30.08,West,272,2.0,7.0,41,0.00,,---,0.00,VWS V14.00,2013-06-20 22:37:00,
2013-06-20 18:39:00,85.9,59.5,30.08,SSW,207,0.0,7.0,41,0.00,,---,0.00,VWS V14.00,2013-06-20 22:39:00,
2013-06-20 18:42:00,85.9,58.8,30.08,South,182,0.0,7.0,40,0.00,,---,0.00,VWS V14.00,2013-06-20 22:42:00,
2013-06-20 18:43:00,85.8,59.4,30.08,South,180,0.0,7.0,41,0.00,,---,0.00,VWS V14.00,2013-06-20 22:43:00,
2013-06-20 18:46:00,85.7,59.3,30.08,SSE,151,0.0,7.0,41,0.00,,---,0.00,VWS V14.00,2013-06-20 22:46:00,
2013-06-20 18:47:00,85.6,59.2,30.08,SE,137,0.0,7.0,41,0.00,,---,0.00,VWS V14.00,2013-06-20 22:47:00,
2013-06-20 18:50:00,85.4,59.7,30.08,ENE,64,5.0,7.0,42,0.00,,---,0.00,VWS V14.00,2013-06-20 22:50:00,
2013-06-20 18:51:00,85.2,59.5,30.08,ENE,68,3.0,7.0,42,0.00,,---,0.00,VWS V14.00,2013-06-20 22:51:00,
2013-06-20 18:52:00,85.1,59.5,30.08,ENE,69,4.0,7.0,42,0.00,,---,0.00,VWS V14.00,2013-06-20 22:52:00,
2013-06-20 18:53:00,85.0,59.4,30.08,ENE,75,4.0,7.0,42,0.00,,---,0.00,VWS V14.00,2013-06-20 22:53:00,
2013-06-20 18:57:00,84.3,59.4,30.08,ENE,71,4.0,7.0,43,0.00,,---,0.00,VWS V14.00,2013-06-20 22:57:00,
2013-06-20 18:58:00,84.2,59.3,30.08,ENE,74,3.0,7.0,43,0.00,,---,0.00,VWS V14.00,2013-06-20 22:58:00,
2013-06-20 19:01:00,83.8,59.6,30.08,ENE,74,3.0,6.0,44,0.00,,---,0.00,VWS V14.00,2013-06-20 23:01:00,
2013-06-20 19:02:00,83.7,59.5,30.08,ENE,69,3.0,6.0,44,0.00,,---,0.00,VWS V14.00,2013-06-20 23:02:00,
2013-06-20 19:04:00,83.7,59.5,30.08,NE,40,1.0,6.0,44,0.00,,---,0.00,VWS V14.00,2013-06-20 23:04:00,
2013-06-20 19:06:00,83.9,59.7,30.07,East,84,4.0,6.0,44,0.00,,---,0.00,VWS V14.00,2013-06-20 23:06:00,
2013-06-20 19:07:00,84.0,59.8,30.07,ENE,75,5.0,6.0,44,0.00,,---,0.00,VWS V14.00,2013-06-20 23:07:00,
2013-06-20 19:08:00,84.0,59.1,30.08,ENE,76,4.0,6.0,43,0.00,,---,0.00,VWS V14.00,2013-06-20 23:08:00,
2013-06-20 19:09:00,83.9,59.0,30.08,East,87,3.0,6.0,43,0.00,,---,0.00,VWS V14.00,2013-06-20 23:09:00,
2013-06-20 19:11:00,83.9,59.7,30.07,East,81,2.0,6.0,44,0.00,,---,0.00,VWS V14.00,2013-06-20 23:11:00,
2013-06-20 19:12:00,83.9,59.7,30.07,East,81,4.0,6.0,44,0.00,,---,0.00,VWS V14.00,2013-06-20 23:12:00,
2013-06-20 19:13:00,83.9,59.0,30.07,East,83,3.0,6.0,43,0.00,,---,0.00,VWS V14.00,2013-06-20 23:13:00,
2013-06-20 19:15:00,83.8,59.6,30.07,East,86,3.0,6.0,44,0.00,,---,0.00,VWS V14.00,2013-06-20 23:15:00,
2013-06-20 19:17:00,83.7,59.5,30.07,East,95,2.0,6.0,44,0.00,,---,0.00,VWS V14.00,2013-06-20 23:17:00,
2013-06-20 19:18:00,83.7,59.5,30.07,East,90,3.0,6.0,44,0.00,,---,0.00,VWS V14.00,2013-06-20 23:18:00,
2013-06-20 19:19:00,83.6,59.4,30.08,East,89,6.0,7.0,44,0.00,,---,0.00,VWS V14.00,2013-06-20 23:19:00,
2013-06-20 19:22:00,83.4,59.8,30.07,East,93,0.0,7.0,45,0.00,,---,0.00,VWS V14.00,2013-06-20 23:22:00,
2013-06-20 19:23:00,83.4,59.2,30.07,East,94,0.0,7.0,44,0.00,,---,0.00,VWS V14.00,2013-06-20 23:23:00,
2013-06-20 19:24:00,83.5,59.3,30.07,East,94,4.0,7.0,44,0.00,,---,0.00,VWS V14.00,2013-06-20 23:24:00,
2013-06-20 19:27:00,83.6,59.4,30.07,East,96,1.0,7.0,44,0.00,,---,0.00,VWS V14.00,2013-06-20 23:27:00,
2013-06-20 19:28:00,83.6,59.4,30.07,East,89,3.0,3.0,44,0.00,,---,0.00,VWS V14.00,2013-06-20 23:28:00,
2013-06-20 19:29:00,83.6,59.4,30.07,East,86,5.0,5.0,44,0.00,,---,0.00,VWS V14.00,2013-06-20 23:29:00,
2013-06-20 19:30:00,83.6,59.4,30.07,East,88,4.0,6.0,44,0.00,,---,0.00,VWS V14.00,2013-06-20 23:30:00,
2013-06-20 19:33:00,83.5,59.3,30.07,East,92,0.0,6.0,44,0.00,,---,0.00,VWS V14.00,2013-06-20 23:33:00,
2013-06-20 19:34:00,83.5,59.3,30.07,East,94,4.0,6.0,44,0.00,,---,0.00,VWS V14.00,2013-06-20 23:34:00,
2013-06-20 19:35:00,83.5,59.3,30.07,East,92,4.0,6.0,44,0.00,,---,0.00,VWS V14.00,2013-06-20 23:35:00,
2013-06-20 19:37:00,83.3,59.8,30.07,East,87,2.0,6.0,45,0.00,,---,0.00,VWS V14.00,2013-06-20 23:37:00,
2013-06-20 19:38:00,83.2,59.7,30.07,East,88,2.0,6.0,45,0.00,,---,0.00,VWS V14.00,2013-06-20 23:38:00,
2013-06-20 19:39:00,83.2,59.7,30.07,East,87,4.0,6.0,45,0.00,,---,0.00,VWS V14.00,2013-06-20 23:39:00,
2013-06-20 19:41:00,83.0,59.5,30.07,East,83,3.0,6.0,45,0.00,,---,0.00,VWS V14.00,2013-06-20 23:41:00,
2013-06-20 19:42:00,82.9,59.4,30.07,East,84,3.0,6.0,45,0.00,,---,0.00,VWS V14.00,2013-06-20 23:42:00,
2013-06-20 19:43:00,82.9,59.4,30.07,East,83,0.0,6.0,45,0.00,,---,0.00,VWS V14.00,2013-06-20 23:43:00,
2013-06-20 19:44:00,82.9,60.0,30.07,East,83,0.0,6.0,46,0.00,,---,0.00,VWS V14.00,2013-06-20 23:44:00,
2013-06-20 19:45:00,82.9,60.0,30.07,East,83,0.0,6.0,46,0.00,,---,0.00,VWS V14.00,2013-06-20 23:45:00,
2013-06-20 19:46:00,82.8,59.9,30.07,ENE,76,0.0,6.0,46,0.00,,---,0.00,VWS V14.00,2013-06-20 23:46:00,
2013-06-20 19:47:00,82.8,59.9,30.07,ENE,76,0.0,6.0,46,0.00,,---,0.00,VWS V14.00,2013-06-20 23:47:00,
2013-06-20 19:48:00,82.9,60.0,30.07,ENE,77,0.0,6.0,46,0.00,,---,0.00,VWS V14.00,2013-06-20 23:48:00,
2013-06-20 19:50:00,83.0,60.1,30.07,ENE,75,0.0,6.0,46,0.00,,---,0.00,VWS V14.00,2013-06-20 23:50:00,
2013-06-20 19:52:00,83.2,59.7,30.07,East,81,0.0,6.0,45,0.00,,---,0.00,VWS V14.00,2013-06-20 23:52:00,
2013-06-20 19:54:00,83.1,59.6,30.07,East,81,0.0,6.0,45,0.00,,---,0.00,VWS V14.00,2013-06-20 23:54:00,
2013-06-20 19:55:00,83.1,59.6,30.07,East,80,0.0,6.0,45,0.00,,---,0.00,VWS V14.00,2013-06-20 23:55:00,
2013-06-20 19:56:00,83.0,59.5,30.07,East,81,0.0,6.0,45,0.00,,---,0.00,VWS V14.00,2013-06-20 23:56:00,
2013-06-20 19:57:00,82.9,59.4,30.07,East,81,0.0,6.0,45,0.00,,---,0.00,VWS V14.00,2013-06-20 23:57:00,
2013-06-20 19:58:00,82.9,59.4,30.07,East,81,0.0,6.0,45,0.00,,---,0.00,VWS V14.00,2013-06-20 23:58:00,
2013-06-20 20:01:00,83.3,59.8,30.06,WNW,294,1.0,5.0,45,0.00,,---,0.00,VWS V14.00,2013-06-21 00:01:00,
2013-06-20 20:02:00,83.4,59.8,30.06,WNW,294,1.0,5.0,45,0.00,,---,0.00,VWS V14.00,2013-06-21 00:02:00,
2013-06-20 20:03:00,83.5,59.9,30.06,WNW,294,0.0,5.0,45,0.00,,---,0.00,VWS V14.00,2013-06-21 00:03:00,
2013-06-20 20:04:00,83.6,60.0,30.06,WNW,294,0.0,5.0,45,0.00,,---,0.00,VWS V14.00,2013-06-21 00:04:00,
2013-06-20 20:07:00,83.9,59.7,30.06,WNW,286,3.0,5.0,44,0.00,,---,0.00,VWS V14.00,2013-06-21 00:07:00,
2013-06-20 20:08:00,84.0,59.8,30.06,WNW,286,0.0,5.0,44,0.00,,---,0.00,VWS V14.00,2013-06-21 00:08:00,
2013-06-20 20:09:00,84.1,59.9,30.06,WNW,286,0.0,5.0,44,0.00,,---,0.00,VWS V14.00,2013-06-21 00:09:00,
2013-06-20 20:12:00,84.2,60.0,30.06,WSW,246,2.0,5.0,44,0.00,,---,0.00,VWS V14.00,2013-06-21 00:12:00,
2013-06-20 20:13:00,84.1,59.9,30.06,WSW,246,0.0,5.0,44,0.00,,---,0.00,VWS V14.00,2013-06-21 00:13:00,
2013-06-20 20:14:00,84.1,59.9,30.06,SW,217,3.0,5.0,44,0.00,,---,0.00,VWS V14.00,2013-06-21 00:14:00,
2013-06-20 20:15:00,84.1,60.5,30.06,South,180,0.0,5.0,45,0.00,,---,0.00,VWS V14.00,2013-06-21 00:15:00,
2013-06-20 20:19:00,83.6,60.0,30.06,SSE,167,4.0,6.0,45,0.00,,---,0.00,VWS V14.00,2013-06-21 00:19:00,
2013-06-20 20:20:00,83.4,59.8,30.06,SSE,165,4.0,6.0,45,0.00,,---,0.00,VWS V14.00,2013-06-21 00:20:00,
2013-06-20 20:21:00,83.2,60.3,30.06,SSE,167,3.0,6.0,46,0.00,,---,0.00,VWS V14.00,2013-06-21 00:21:00,
2013-06-20 20:22:00,83.1,60.2,30.06,South,169,2.0,6.0,46,0.00,,---,0.00,VWS V14.00,2013-06-21 00:22:00,
2013-06-20 20:24:00,83.0,60.1,30.06,South,171,4.0,6.0,46,0.00,,---,0.00,VWS V14.00,2013-06-21 00:24:00,
2013-06-20 20:26:00,82.9,60.6,30.06,South,173,2.0,6.0,47,0.00,,---,0.00,VWS V14.00,2013-06-21 00:26:00,
2013-06-20 20:27:00,82.9,60.6,30.06,South,173,4.0,6.0,47,0.00,,---,0.00,VWS V14.00,2013-06-21 00:27:00,
2013-06-20 20:28:00,82.8,59.9,30.06,South,172,3.0,3.0,46,0.00,,---,0.00,VWS V14.00,2013-06-21 00:28:00,
2013-06-20 20:29:00,82.7,59.8,30.06,South,172,1.0,4.0,46,0.00,,---,0.00,VWS V14.00,2013-06-21 00:29:00,
2013-06-20 20:32:00,82.7,59.8,30.06,South,173,4.0,6.0,46,0.00,,---,0.00,VWS V14.00,2013-06-21 00:32:00,
2013-06-20 20:33:00,82.6,60.9,30.06,South,175,3.0,6.0,48,0.00,,---,0.00,VWS V14.00,2013-06-21 00:33:00,
2013-06-20 20:34:00,82.5,60.3,30.06,South,175,2.0,6.0,47,0.00,,---,0.00,VWS V14.00,2013-06-21 00:34:00,
2013-06-20 20:35:00,82.5,60.8,30.06,South,173,2.0,6.0,48,0.00,,---,0.00,VWS V14.00,2013-06-21 00:35:00,
2013-06-20 20:38:00,82.4,60.2,30.07,South,169,6.0,7.0,47,0.00,,---,0.00,VWS V14.00,2013-06-21 00:38:00,
2013-06-20 20:39:00,82.2,60.0,30.07,South,170,4.0,7.0,47,0.00,,---,0.00,VWS V14.00,2013-06-21 00:39:00,
2013-06-20 20:40:00,82.0,59.8,30.07,South,169,0.0,7.0,47,0.00,,---,0.00,VWS V14.00,2013-06-21 00:40:00,
2013-06-20 20:41:00,81.9,60.3,30.07,South,169,3.0,7.0,48,0.00,,---,0.00,VWS V14.00,2013-06-21 00:41:00,
2013-06-20 20:43:00,81.8,60.2,30.07,SSE,168,0.0,7.0,48,0.00,,---,0.00,VWS V14.00,2013-06-21 00:43:00,
2013-06-20 20:45:00,81.7,60.1,30.07,South,173,0.0,7.0,48,0.00,,---,0.00,VWS V14.00,2013-06-21 00:45:00,
2013-06-20 20:47:00,81.7,60.1,30.07,South,172,1.0,7.0,48,0.00,,---,0.00,VWS V14.00,2013-06-21 00:47:00,
2013-06-20 20:48:00,81.6,60.6,30.07,South,173,0.0,7.0,49,0.00,,---,0.00,VWS V14.00,2013-06-21 00:48:00,
2013-06-20 20:50:00,81.6,60.0,30.07,South,173,0.0,7.0,48,0.00,,---,0.00,VWS V14.00,2013-06-21 00:50:00,
2013-06-20 20:52:00,81.4,59.8,30.07,SSE,154,3.0,7.0,48,0.00,,---,0.00,VWS V14.00,2013-06-21 00:52:00,
2013-06-20 20:55:00,81.1,60.2,30.07,SSE,153,0.0,7.0,49,0.00,,---,0.00,VWS V14.00,2013-06-21 00:55:00,
2013-06-20 20:56:00,81.0,60.1,30.07,SSE,148,3.0,9.0,49,0.00,,---,0.00,VWS V14.00,2013-06-21 00:56:00,
2013-06-20 20:57:00,80.8,59.9,30.07,SE,145,0.0,9.0,49,0.00,,---,0.00,VWS V14.00,2013-06-21 00:57:00,
2013-06-20 20:58:00,80.7,59.8,30.07,SE,145,4.0,9.0,49,0.00,,---,0.00,VWS V14.00,2013-06-21 00:58:00,
2013-06-20 21:00:00,80.5,60.2,30.07,SE,145,0.0,4.0,50,0.00,,---,0.00,VWS V14.00,2013-06-21 01:00:00,
2013-06-20 21:01:00,80.4,60.1,30.07,SE,144,0.0,4.0,50,0.00,,---,0.00,VWS V14.00,2013-06-21 01:01:00,
2013-06-20 21:02:00,80.3,60.0,30.07,SE,146,0.0,4.0,50,0.00,,---,0.00,VWS V14.00,2013-06-21 01:02:00,
2013-06-20 21:05:00,80.1,60.4,30.07,SE,144,0.0,4.0,51,0.00,,---,0.00,VWS V14.00,2013-06-21 01:05:00,
2013-06-20 21:06:00,80.0,60.3,30.07,SE,144,0.0,4.0,51,0.00,,---,0.00,VWS V14.00,2013-06-21 01:06:00,
2013-06-20 21:07:00,79.9,60.2,30.07,SE,144,0.0,4.0,51,0.00,,---,0.00,VWS V14.00,2013-06-21 01:07:00,
2013-06-20 21:08:00,79.8,60.1,30.07,SE,144,0.0,4.0,51,0.00,,---,0.00,VWS V14.00,2013-06-21 01:08:00,
2013-06-20 21:10:00,79.7,60.0,30.07,SE,144,0.0,4.0,51,0.00,,---,0.00,VWS V14.00,2013-06-21 01:10:00,
2013-06-20 21:11:00,79.6,59.9,30.07,SE,142,0.0,4.0,51,0.00,,---,0.00,VWS V14.00,2013-06-21 01:11:00,
2013-06-20 21:13:00,79.5,59.8,30.06,SE,141,1.0,4.0,51,0.00,,---,0.00,VWS V14.00,2013-06-21 01:13:00,
2013-06-20 21:14:00,79.4,59.7,30.07,SE,141,0.0,4.0,51,0.00,,---,0.00,VWS V14.00,2013-06-21 01:14:00,
2013-06-20 21:15:00,79.3,60.2,30.07,SE,141,0.0,4.0,52,0.00,,---,0.00,VWS V14.00,2013-06-21 01:15:00,
2013-06-20 21:16:00,79.2,60.1,30.07,SE,142,0.0,4.0,52,0.00,,---,0.00,VWS V14.00,2013-06-21 01:16:00,
2013-06-20 21:17:00,79.2,60.1,30.07,SE,142,0.0,4.0,52,0.00,,---,0.00,VWS V14.00,2013-06-21 01:17:00,
2013-06-20 21:19:00,79.0,59.9,30.07,SE,142,0.0,4.0,52,0.00,,---,0.00,VWS V14.00,2013-06-21 01:19:00,
2013-06-20 21:20:00,78.9,59.8,30.07,SE,141,3.0,5.0,52,0.00,,---,0.00,VWS V14.00,2013-06-21 01:20:00,
2013-06-20 21:22:00,78.7,59.6,30.07,SE,141,0.0,5.0,52,0.00,,---,0.00,VWS V14.00,2013-06-21 01:22:00,
2013-06-20 21:24:00,78.7,59.6,30.07,SE,140,0.0,5.0,52,0.00,,---,0.00,VWS V14.00,2013-06-21 01:24:00,
2013-06-20 21:25:00,78.7,59.6,30.07,SE,140,0.0,5.0,52,0.00,,---,0.00,VWS V14.00,2013-06-21 01:25:00,
2013-06-20 21:26:00,78.5,60.0,30.07,SE,140,0.0,5.0,53,0.00,,---,0.00,VWS V14.00,2013-06-21 01:26:00,
2013-06-20 21:27:00,78.4,59.9,30.07,SE,140,0.0,5.0,53,0.00,,---,0.00,VWS V14.00,2013-06-21 01:27:00,
2013-06-20 21:28:00,78.4,59.9,30.07,SE,140,0.0,5.0,53,0.00,,---,0.00,VWS V14.00,2013-06-21 01:28:00,
2013-06-20 21:30:00,78.2,59.7,30.07,SE,140,0.0,0.0,53,0.00,,---,0.00,VWS V14.00,2013-06-21 01:30:00,
2013-06-20 21:31:00,78.1,60.1,30.07,SE,139,0.0,0.0,54,0.00,,---,0.00,VWS V14.00,2013-06-21 01:31:00,
2013-06-20 21:32:00,78.1,60.1,30.07,SE,139,0.0,0.0,54,0.00,,---,0.00,VWS V14.00,2013-06-21 01:32:00,
2013-06-20 21:33:00,78.1,60.1,30.07,SE,139,0.0,0.0,54,0.00,,---,0.00,VWS V14.00,2013-06-21 01:33:00,
2013-06-20 21:36:00,77.9,59.9,30.07,SE,139,0.0,0.0,54,0.00,,---,0.00,VWS V14.00,2013-06-21 01:36:00,
2013-06-20 21:39:00,77.7,60.3,30.07,SE,140,0.0,4.0,55,0.00,,---,0.00,VWS V14.00,2013-06-21 01:39:00,
2013-06-20 21:40:00,77.6,60.2,30.07,SE,141,0.0,4.0,55,0.00,,---,0.00,VWS V14.00,2013-06-21 01:40:00,
2013-06-20 21:41:00,77.6,60.2,30.07,SE,140,0.0,4.0,55,0.00,,---,0.00,VWS V14.00,2013-06-21 01:41:00,
2013-06-20 21:42:00,77.5,60.1,30.07,SE,140,0.0,4.0,55,0.00,,---,0.00,VWS V14.00,2013-06-21 01:42:00,
2013-06-20 21:45:00,77.3,59.9,30.07,SE,139,0.0,4.0,55,0.00,,---,0.00,VWS V14.00,2013-06-21 01:45:00,
2013-06-20 21:47:00,77.2,60.3,30.07,SE,140,0.0,4.0,56,0.00,,---,0.00,VWS V14.00,2013-06-21 01:47:00,
2013-06-20 21:49:00,77.1,60.2,30.07,SE,138,0.0,4.0,56,0.00,,---,0.00,VWS V14.00,2013-06-21 01:49:00,
2013-06-20 21:52:00,77.0,60.1,30.07,SE,138,0.0,4.0,56,0.00,,---,0.00,VWS V14.00,2013-06-21 01:52:00,
2013-06-20 21:53:00,77.0,60.1,30.07,SE,138,0.0,4.0,56,0.00,,---,0.00,VWS V14.00,2013-06-21 01:53:00,
2013-06-20 21:55:00,76.9,60.0,30.07,SE,138,0.0,4.0,56,0.00,,---,0.00,VWS V14.00,2013-06-21 01:55:00,
2013-06-20 21:58:00,76.9,60.5,30.07,SE,138,0.0,4.0,57,0.00,,---,0.00,VWS V14.00,2013-06-21 01:58:00,
2013-06-20 21:59:00,76.8,60.4,30.07,SE,137,0.0,0.0,57,0.00,,---,0.00,VWS V14.00,2013-06-21 01:59:00,
2013-06-20 22:00:00,76.8,60.4,30.07,SE,137,0.0,0.0,57,0.00,,---,0.00,VWS V14.00,2013-06-21 02:00:00,
2013-06-20 22:01:00,76.8,60.4,30.07,SE,137,0.0,0.0,57,0.00,,---,0.00,VWS V14.00,2013-06-21 02:01:00,
2013-06-20 22:02:00,76.7,60.3,30.07,SE,137,0.0,0.0,57,0.00,,---,0.00,VWS V14.00,2013-06-21 02:02:00,
2013-06-20 22:06:00,76.5,60.6,30.07,SE,137,0.0,0.0,58,0.00,,---,0.00,VWS V14.00,2013-06-21 02:06:00,
2013-06-20 22:07:00,76.5,60.6,30.07,SE,137,0.0,0.0,58,0.00,,---,0.00,VWS V14.00,2013-06-21 02:07:00,
2013-06-20 22:08:00,76.3,60.9,30.08,SE,137,0.0,0.0,59,0.00,,---,0.00,VWS V14.00,2013-06-21 02:08:00,
2013-06-20 22:09:00,76.3,60.9,30.08,SE,137,0.0,0.0,59,0.00,,---,0.00,VWS V14.00,2013-06-21 02:09:00,
2013-06-20 22:11:00,76.1,60.8,30.08,SE,137,0.0,0.0,59,0.00,,---,0.00,VWS V14.00,2013-06-21 02:11:00,
2013-06-20 22:12:00,76.1,60.8,30.08,SE,137,0.0,0.0,59,0.00,,---,0.00,VWS V14.00,2013-06-21 02:12:00,
2013-06-20 22:13:00,76.0,60.7,30.08,SE,137,0.0,0.0,59,0.00,,---,0.00,VWS V14.00,2013-06-21 02:13:00,
2013-06-20 22:14:00,76.0,61.1,30.08,SE,137,0.0,0.0,60,0.00,,---,0.00,VWS V14.00,2013-06-21 02:14:00,
2013-06-20 22:18:00,75.8,60.9,30.08,SE,137,0.0,0.0,60,0.00,,---,0.00,VWS V14.00,2013-06-21 02:18:00,
2013-06-20 22:19:00,75.7,61.3,30.08,SE,137,0.0,0.0,61,0.00,,---,0.00,VWS V14.00,2013-06-21 02:19:00,
2013-06-20 22:20:00,75.6,61.2,30.08,SE,137,0.0,0.0,61,0.00,,---,0.00,VWS V14.00,2013-06-21 02:20:00,
2013-06-20 22:22:00,75.4,61.5,30.08,SE,137,0.0,0.0,62,0.00,,---,0.00,VWS V14.00,2013-06-21 02:22:00,
2013-06-20 22:23:00,75.4,61.5,30.08,SE,137,0.0,0.0,62,0.00,,---,0.00,VWS V14.00,2013-06-21 02:23:00,
2013-06-20 22:24:00,75.3,61.4,30.08,SE,137,0.0,0.0,62,0.00,,---,0.00,VWS V14.00,2013-06-21 02:24:00,
2013-06-20 22:25:00,75.2,61.8,30.08,SE,137,0.0,0.0,63,0.00,,---,0.00,VWS V14.00,2013-06-21 02:25:00,
2013-06-20 22:28:00,74.8,61.8,30.08,SE,137,0.0,0.0,64,0.00,,---,0.00,VWS V14.00,2013-06-21 02:28:00,
2013-06-20 22:30:00,74.6,61.6,30.08,SE,137,0.0,0.0,64,0.00,,---,0.00,VWS V14.00,2013-06-21 02:30:00,
2013-06-20 22:32:00,74.2,61.7,30.08,SE,137,0.0,0.0,65,0.00,,---,0.00,VWS V14.00,2013-06-21 02:32:00,
2013-06-20 22:34:00,74.0,61.9,30.08,SE,137,0.0,0.0,66,0.00,,---,0.00,VWS V14.00,2013-06-21 02:34:00,
2013-06-20 22:35:00,73.9,61.8,30.09,SE,137,0.0,0.0,66,0.00,,---,0.00,VWS V14.00,2013-06-21 02:35:00,
2013-06-20 22:37:00,73.7,62.1,30.09,SE,137,0.0,0.0,67,0.00,,---,0.00,VWS V14.00,2013-06-21 02:37:00,
2013-06-20 22:39:00,73.4,62.2,30.09,SE,137,0.0,0.0,68,0.00,,---,0.00,VWS V14.00,2013-06-21 02:39:00,
2013-06-20 22:41:00,73.2,62.0,30.09,SE,137,0.0,0.0,68,0.00,,---,0.00,VWS V14.00,2013-06-21 02:41:00,
2013-06-20 22:42:00,73.2,62.0,30.09,SE,137,0.0,0.0,68,0.00,,---,0.00,VWS V14.00,2013-06-21 02:42:00,
2013-06-20 22:43:00,73.1,61.9,30.09,SE,137,0.0,0.0,68,0.00,,---,0.00,VWS V14.00,2013-06-21 02:43:00,
2013-06-20 22:45:00,72.9,62.1,30.09,SE,137,0.0,0.0,69,0.00,,---,0.00,VWS V14.00,2013-06-21 02:45:00,
2013-06-20 22:46:00,72.9,62.1,30.09,SE,137,0.0,0.0,69,0.00,,---,0.00,VWS V14.00,2013-06-21 02:46:00,
2013-06-20 22:48:00,72.8,62.0,30.09,SE,137,0.0,0.0,69,0.00,,---,0.00,VWS V14.00,2013-06-21 02:48:00,
2013-06-20 22:50:00,72.6,61.9,30.09,SE,137,0.0,0.0,69,0.00,,---,0.00,VWS V14.00,2013-06-21 02:50:00,
2013-06-20 22:51:00,72.6,61.9,30.09,SE,137,0.0,0.0,69,0.00,,---,0.00,VWS V14.00,2013-06-21 02:51:00,
2013-06-20 22:52:00,72.5,61.8,30.09,SE,137,0.0,0.0,69,0.00,,---,0.00,VWS V14.00,2013-06-21 02:52:00,
2013-06-20 22:53:00,72.5,62.2,30.09,SE,137,0.0,0.0,70,0.00,,---,0.00,VWS V14.00,2013-06-21 02:53:00,
2013-06-20 22:56:00,72.4,62.1,30.09,SE,137,0.0,0.0,70,0.00,,---,0.00,VWS V14.00,2013-06-21 02:56:00,
2013-06-20 22:57:00,72.3,62.0,30.09,SE,137,0.0,0.0,70,0.00,,---,0.00,VWS V14.00,2013-06-21 02:57:00,
2013-06-20 22:59:00,72.2,61.9,30.09,SE,137,0.0,0.0,70,0.00,,---,0.00,VWS V14.00,2013-06-21 02:59:00,
2013-06-20 23:01:00,72.1,61.8,30.09,SE,137,0.0,0.0,70,0.00,,---,0.00,VWS V14.00,2013-06-21 03:01:00,
2013-06-20 23:03:00,72.0,62.1,30.09,SE,137,0.0,0.0,71,0.00,,---,0.00,VWS V14.00,2013-06-21 03:03:00,
2013-06-20 23:04:00,72.0,62.1,30.09,SE,137,0.0,0.0,71,0.00,,---,0.00,VWS V14.00,2013-06-21 03:04:00,
2013-06-20 23:05:00,71.9,62.0,30.09,SE,137,0.0,0.0,71,0.00,,---,0.00,VWS V14.00,2013-06-21 03:05:00,
2013-06-20 23:06:00,71.9,62.0,30.09,SE,137,0.0,0.0,71,0.00,,---,0.00,VWS V14.00,2013-06-21 03:06:00,
2013-06-20 23:07:00,71.8,61.9,30.09,SE,137,0.0,0.0,71,0.00,,---,0.00,VWS V14.00,2013-06-21 03:07:00,
2013-06-20 23:08:00,71.7,61.8,30.09,SE,137,0.0,0.0,71,0.00,,---,0.00,VWS V14.00,2013-06-21 03:08:00,
2013-06-20 23:10:00,71.6,61.7,30.09,SE,137,0.0,0.0,71,0.00,,---,0.00,VWS V14.00,2013-06-21 03:10:00,
2013-06-20 23:11:00,71.5,61.6,30.09,SE,137,0.0,0.0,71,0.00,,---,0.00,VWS V14.00,2013-06-21 03:11:00,
2013-06-20 23:12:00,71.4,61.9,30.10,SE,137,0.0,0.0,72,0.00,,---,0.00,VWS V14.00,2013-06-21 03:12:00,
2013-06-20 23:13:00,71.3,61.8,30.10,SE,137,0.0,0.0,72,0.00,,---,0.00,VWS V14.00,2013-06-21 03:13:00,
2013-06-20 23:16:00,71.2,61.7,30.09,SE,137,0.0,0.0,72,0.00,,---,0.00,VWS V14.00,2013-06-21 03:16:00,
2013-06-20 23:18:00,71.1,61.6,30.09,SE,137,0.0,0.0,72,0.00,,---,0.00,VWS V14.00,2013-06-21 03:18:00,
2013-06-20 23:19:00,71.0,61.5,30.10,SE,137,0.0,0.0,72,0.00,,---,0.00,VWS V14.00,2013-06-21 03:19:00,
2013-06-20 23:20:00,70.9,61.8,30.10,SE,137,0.0,0.0,73,0.00,,---,0.00,VWS V14.00,2013-06-21 03:20:00,
2013-06-20 23:21:00,70.8,61.7,30.10,SE,137,0.0,0.0,73,0.00,,---,0.00,VWS V14.00,2013-06-21 03:21:00,
2013-06-20 23:24:00,70.7,61.6,30.10,SE,137,0.0,0.0,73,0.00,,---,0.00,VWS V14.00,2013-06-21 03:24:00,
2013-06-20 23:25:00,70.7,61.6,30.10,SE,137,0.0,0.0,73,0.00,,---,0.00,VWS V14.00,2013-06-21 03:25:00,
2013-06-20 23:26:00,70.6,61.5,30.10,SE,137,0.0,0.0,73,0.00,,---,0.00,VWS V14.00,2013-06-21 03:26:00,
2013-06-20 23:28:00,70.6,61.5,30.10,SE,137,0.0,0.0,73,0.00,,---,0.00,VWS V14.00,2013-06-21 03:28:00,
2013-06-20 23:31:00,70.5,61.4,30.10,SE,137,0.0,0.0,73,0.00,,---,0.00,VWS V14.00,2013-06-21 03:31:00,
2013-06-20 23:33:00,70.4,61.3,30.10,SE,137,0.0,0.0,73,0.00,,---,0.00,VWS V14.00,2013-06-21 03:33:00,
2013-06-20 23:36:00,70.1,61.0,30.10,SE,137,0.0,0.0,73,0.00,,---,0.00,VWS V14.00,2013-06-21 03:36:00,
2013-06-20 23:37:00,70.1,61.0,30.10,SE,137,0.0,0.0,73,0.00,,---,0.00,VWS V14.00,2013-06-21 03:37:00,
2013-06-20 23:38:00,70.1,61.0,30.10,SE,137,0.0,0.0,73,0.00,,---,0.00,VWS V14.00,2013-06-21 03:38:00,
2013-06-20 23:41:00,70.0,61.0,30.10,SE,137,0.0,0.0,73,0.00,,---,0.00,VWS V14.00,2013-06-21 03:41:00,
2013-06-20 23:42:00,69.9,60.9,30.10,SE,137,0.0,0.0,73,0.00,,---,0.00,VWS V14.00,2013-06-21 03:42:00,
2013-06-20 23:43:00,69.9,60.9,30.10,SE,137,0.0,0.0,73,0.00,,---,0.00,VWS V14.00,2013-06-21 03:43:00,
2013-06-20 23:44:00,69.9,61.2,30.10,SE,137,0.0,0.0,74,0.00,,---,0.00,VWS V14.00,2013-06-21 03:44:00,
2013-06-20 23:47:00,69.9,61.2,30.11,SE,137,0.0,0.0,74,0.00,,---,0.00,VWS V14.00,2013-06-21 03:47:00,
2013-06-20 23:49:00,69.9,61.2,30.11,SE,137,0.0,0.0,74,0.00,,---,0.00,VWS V14.00,2013-06-21 03:49:00,
2013-06-20 23:50:00,69.9,61.2,30.10,SE,137,0.0,0.0,74,0.00,,---,0.00,VWS V14.00,2013-06-21 03:50:00,
2013-06-20 23:52:00,69.8,61.5,30.10,SE,137,0.0,0.0,75,0.00,,---,0.00,VWS V14.00,2013-06-21 03:52:00,
2013-06-20 23:54:00,69.7,61.4,30.10,SE,137,0.0,0.0,75,0.00,,---,0.00,VWS V14.00,2013-06-21 03:54:00,
2013-06-20 23:55:00,69.7,61.4,30.10,SE,137,0.0,0.0,75,0.00,,---,0.00,VWS V14.00,2013-06-21 03:55:00,
2013-06-20 23:56:00,69.7,61.4,30.10,SE,137,0.0,0.0,75,0.00,,---,0.00,VWS V14.00,2013-06-21 03:56:00,
2013-06-20 23:58:00,69.6,61.3,30.10,SE,137,0.0,0.0,75,0.00,,---,0.00,VWS V14.00,2013-06-21 03:58:00,